Wetterdaten: Samstag, 29.10.2016
Datum Zeit Temp. A. Feuchte A. Luftdruck Regen Wind Richtung Richtung Sonnenschein ET UV Solar Taupunkt Windchill Windben Empfang
29.10.2016 00:01 9,7 C 89 % 1032,7 hPa 0,0 l/m 6,4 km/h (2 Bft) W 274 0 min 0,000 mm 0,0 UV-I 0 W/m 8,0 C 9,7 C 12,9 km/h (3 Bft) 100,00 %
29.10.2016 00:04 9,7 C 89 % 1032,6 hPa 0,0 l/m 6,6 km/h (2 Bft) W-SW 244 0 min 0,000 mm 0,0 UV-I 0 W/m 8,0 C 9,6 C 11,3 km/h (2 Bft) 97,30 %
29.10.2016 00:06 9,7 C 89 % 1032,7 hPa 0,0 l/m 8,5 km/h (2 Bft) W-SW 250 0 min 0,000 mm 0,0 UV-I 0 W/m 8,0 C 8,2 C 16,1 km/h (3 Bft) 98,00 %
29.10.2016 00:08 9,7 C 88 % 1032,8 hPa 0,0 l/m 7,9 km/h (2 Bft) W 261 0 min 0,000 mm 0,0 UV-I 0 W/m 7,8 C 8,6 C 12,9 km/h (3 Bft) 97,37 %
29.10.2016 00:10 9,7 C 89 % 1032,8 hPa 0,0 l/m 4,7 km/h (1 Bft) W-SW 240 0 min 0,000 mm 0,0 UV-I 0 W/m 8,0 C 9,7 C 8,0 km/h (2 Bft) 95,74 %
29.10.2016 00:12 9,7 C 89 % 1032,7 hPa 0,0 l/m 4,8 km/h (1 Bft) W-SW 241 0 min 0,000 mm 0,0 UV-I 0 W/m 8,0 C 9,7 C 6,4 km/h (2 Bft) 97,87 %
29.10.2016 00:14 9,7 C 89 % 1032,5 hPa 0,0 l/m 5,7 km/h (1 Bft) SW 218 0 min 0,000 mm 0,0 UV-I 0 W/m 8,0 C 9,7 C 9,7 km/h (2 Bft) 95,12 %
29.10.2016 00:16 9,7 C 89 % 1032,5 hPa 0,0 l/m 7,8 km/h (2 Bft) SW 235 0 min 0,000 mm 0,0 UV-I 0 W/m 8,0 C 8,7 C 12,9 km/h (3 Bft) 93,22 %
29.10.2016 00:18 9,7 C 89 % 1032,5 hPa 0,0 l/m 5,2 km/h (1 Bft) W-SW 242 0 min 0,000 mm 0,0 UV-I 0 W/m 8,0 C 9,7 C 8,0 km/h (2 Bft) 97,56 %
29.10.2016 00:20 9,7 C 89 % 1032,6 hPa 0,0 l/m 4,1 km/h (1 Bft) W-SW 242 0 min 0,000 mm 0,0 UV-I 0 W/m 8,0 C 9,7 C 6,4 km/h (2 Bft) 98,00 %
29.10.2016 00:22 9,7 C 89 % 1032,6 hPa 0,0 l/m 5,6 km/h (1 Bft) W-SW 252 0 min 0,000 mm 0,0 UV-I 0 W/m 8,0 C 9,7 C 9,7 km/h (2 Bft) 97,87 %
29.10.2016 00:24 9,7 C 89 % 1032,5 hPa 0,0 l/m 6,8 km/h (2 Bft) SW 230 0 min 0,000 mm 0,0 UV-I 0 W/m 8,0 C 9,4 C 11,3 km/h (2 Bft) 96,00 %
29.10.2016 00:26 9,7 C 89 % 1032,6 hPa 0,0 l/m 7,1 km/h (2 Bft) W-SW 246 0 min 0,000 mm 0,0 UV-I 0 W/m 8,0 C 9,2 C 9,7 km/h (2 Bft) 97,44 %
29.10.2016 00:28 9,7 C 89 % 1032,7 hPa 0,0 l/m 5,4 km/h (1 Bft) SW 236 0 min 0,000 mm 0,0 UV-I 0 W/m 8,0 C 9,7 C 8,0 km/h (2 Bft) 98,00 %
29.10.2016 00:30 9,7 C 89 % 1032,6 hPa 0,0 l/m 6,3 km/h (2 Bft) W-SW 245 0 min 0,000 mm 0,0 UV-I 0 W/m 8,0 C 9,7 C 9,7 km/h (2 Bft) 98,00 %
29.10.2016 00:32 9,7 C 89 % 1032,6 hPa 0,0 l/m 5,5 km/h (1 Bft) W-SW 241 0 min 0,000 mm 0,0 UV-I 0 W/m 8,0 C 9,7 C 8,0 km/h (2 Bft) 97,73 %
29.10.2016 00:34 9,7 C 89 % 1032,6 hPa 0,0 l/m 5,9 km/h (2 Bft) W-SW 242 0 min 0,000 mm 0,0 UV-I 0 W/m 8,0 C 9,7 C 9,7 km/h (2 Bft) 100,00 %
29.10.2016 00:36 9,7 C 89 % 1032,7 hPa 0,0 l/m 7,3 km/h (2 Bft) W-SW 254 0 min 0,000 mm 0,0 UV-I 0 W/m 8,0 C 9,0 C 11,3 km/h (2 Bft) 97,87 %
29.10.2016 00:38 9,7 C 89 % 1032,7 hPa 0,0 l/m 5,6 km/h (1 Bft) W-SW 243 0 min 0,000 mm 0,0 UV-I 0 W/m 8,0 C 9,7 C 9,7 km/h (2 Bft) 100,00 %
29.10.2016 00:40 9,7 C 89 % 1032,7 hPa 0,0 l/m 6,5 km/h (2 Bft) SW 235 0 min 0,000 mm 0,0 UV-I 0 W/m 8,0 C 9,7 C 11,3 km/h (2 Bft) 97,56 %
29.10.2016 00:42 9,7 C 89 % 1032,6 hPa 0,0 l/m 8,1 km/h (2 Bft) SW 224 0 min 0,000 mm 0,0 UV-I 0 W/m 8,0 C 8,5 C 16,1 km/h (3 Bft) 100,00 %
29.10.2016 00:44 9,7 C 89 % 1032,6 hPa 0,0 l/m 7,4 km/h (2 Bft) SW 215 0 min 0,000 mm 0,0 UV-I 0 W/m 8,0 C 9,0 C 9,7 km/h (2 Bft) 100,00 %
29.10.2016 00:46 9,7 C 89 % 1032,5 hPa 0,0 l/m 6,9 km/h (2 Bft) W-SW 243 0 min 0,000 mm 0,0 UV-I 0 W/m 8,0 C 9,3 C 8,0 km/h (2 Bft) 100,00 %
29.10.2016 00:48 9,7 C 89 % 1032,5 hPa 0,0 l/m 7,0 km/h (2 Bft) SW 229 0 min 0,000 mm 0,0 UV-I 0 W/m 8,0 C 9,3 C 11,3 km/h (2 Bft) 100,00 %
29.10.2016 00:50 9,7 C 89 % 1032,4 hPa 0,0 l/m 6,9 km/h (2 Bft) SW 224 0 min 0,000 mm 0,0 UV-I 0 W/m 8,0 C 9,3 C 11,3 km/h (2 Bft) 100,00 %
29.10.2016 00:52 9,7 C 89 % 1032,5 hPa 0,0 l/m 6,1 km/h (2 Bft) W-SW 240 0 min 0,000 mm 0,0 UV-I 0 W/m 8,0 C 9,7 C 12,9 km/h (3 Bft) 100,00 %
29.10.2016 00:54 9,7 C 89 % 1032,5 hPa 0,0 l/m 6,9 km/h (2 Bft) SW 225 0 min 0,000 mm 0,0 UV-I 0 W/m 8,0 C 9,3 C 11,3 km/h (2 Bft) 100,00 %
29.10.2016 00:56 9,7 C 89 % 1032,5 hPa 0,0 l/m 4,9 km/h (1 Bft) W-SW 252 0 min 0,000 mm 0,0 UV-I 0 W/m 8,0 C 9,7 C 6,4 km/h (2 Bft) 100,00 %
29.10.2016 00:58 9,7 C 89 % 1032,5 hPa 0,0 l/m 5,7 km/h (1 Bft) W-SW 245 0 min 0,000 mm 0,0 UV-I 0 W/m 8,0 C 9,7 C 11,3 km/h (2 Bft) 96,23 %
29.10.2016 01:00 9,7 C 89 % 1032,5 hPa 0,0 l/m 5,0 km/h (1 Bft) W-SW 241 0 min 0,000 mm 0,0 UV-I 0 W/m 8,0 C 9,7 C 6,4 km/h (2 Bft) 100,00 %
29.10.2016 01:02 9,7 C 90 % 1032,5 hPa 0,0 l/m 5,5 km/h (1 Bft) W-SW 255 0 min 0,000 mm 0,0 UV-I 0 W/m 8,1 C 9,7 C 8,0 km/h (2 Bft) 98,11 %
29.10.2016 01:04 9,7 C 89 % 1032,5 hPa 0,0 l/m 6,3 km/h (2 Bft) W 262 0 min 0,000 mm 0,0 UV-I 0 W/m 8,0 C 9,7 C 9,7 km/h (2 Bft) 97,22 %
29.10.2016 01:06 9,7 C 89 % 1032,4 hPa 0,0 l/m 4,5 km/h (1 Bft) W-SW 246 0 min 0,000 mm 0,0 UV-I 0 W/m 8,0 C 9,7 C 6,4 km/h (2 Bft) 96,23 %
29.10.2016 01:08 9,7 C 89 % 1032,3 hPa 0,0 l/m 5,8 km/h (2 Bft) W-SW 245 0 min 0,000 mm 0,0 UV-I 0 W/m 8,0 C 9,7 C 11,3 km/h (2 Bft) 100,00 %
29.10.2016 01:10 9,7 C 89 % 1032,3 hPa 0,0 l/m 5,2 km/h (1 Bft) SW 226 0 min 0,000 mm 0,0 UV-I 0 W/m 8,0 C 9,7 C 6,4 km/h (2 Bft) 100,00 %
29.10.2016 01:12 9,7 C 89 % 1032,2 hPa 0,0 l/m 6,1 km/h (2 Bft) SW 226 0 min 0,000 mm 0,0 UV-I 0 W/m 8,0 C 9,7 C 8,0 km/h (2 Bft) 100,00 %
29.10.2016 01:14 9,7 C 89 % 1032,3 hPa 0,0 l/m 5,5 km/h (1 Bft) SW 231 0 min 0,000 mm 0,0 UV-I 0 W/m 8,0 C 9,7 C 8,0 km/h (2 Bft) 98,11 %
29.10.2016 01:16 9,7 C 89 % 1032,3 hPa 0,0 l/m 6,0 km/h (2 Bft) W-SW 256 0 min 0,000 mm 0,0 UV-I 0 W/m 8,0 C 9,7 C 8,0 km/h (2 Bft) 100,00 %
29.10.2016 01:18 9,7 C 89 % 1032,3 hPa 0,0 l/m 5,8 km/h (2 Bft) SW 215 0 min 0,000 mm 0,0 UV-I 0 W/m 8,0 C 9,7 C 8,0 km/h (2 Bft) 96,23 %
29.10.2016 01:20 9,7 C 89 % 1032,3 hPa 0,0 l/m 6,0 km/h (2 Bft) W-SW 252 0 min 0,000 mm 0,0 UV-I 0 W/m 8,0 C 9,7 C 9,7 km/h (2 Bft) 100,00 %
29.10.2016 01:22 9,7 C 89 % 1032,3 hPa 0,0 l/m 6,7 km/h (2 Bft) W-SW 255 0 min 0,000 mm 0,0 UV-I 0 W/m 8,0 C 9,5 C 9,7 km/h (2 Bft) 100,00 %
29.10.2016 01:24 9,7 C 89 % 1032,2 hPa 0,0 l/m 6,6 km/h (2 Bft) SW 227 0 min 0,000 mm 0,0 UV-I 0 W/m 8,0 C 9,6 C 11,3 km/h (2 Bft) 98,31 %
29.10.2016 01:26 9,7 C 89 % 1032,3 hPa 0,0 l/m 7,8 km/h (2 Bft) W-SW 258 0 min 0,000 mm 0,0 UV-I 0 W/m 8,0 C 8,7 C 12,9 km/h (3 Bft) 100,00 %
29.10.2016 01:28 9,7 C 89 % 1032,3 hPa 0,0 l/m 7,0 km/h (2 Bft) W 261 0 min 0,000 mm 0,0 UV-I 0 W/m 8,0 C 9,3 C 12,9 km/h (3 Bft) 100,00 %
29.10.2016 01:30 9,7 C 89 % 1032,3 hPa 0,0 l/m 6,4 km/h (2 Bft) W-SW 252 0 min 0,000 mm 0,0 UV-I 0 W/m 8,0 C 9,7 C 11,3 km/h (2 Bft) 100,00 %
29.10.2016 01:32 9,7 C 89 % 1032,2 hPa 0,0 l/m 7,3 km/h (2 Bft) SW 234 0 min 0,000 mm 0,0 UV-I 0 W/m 8,0 C 9,0 C 14,5 km/h (3 Bft) 96,00 %
29.10.2016 01:34 9,7 C 89 % 1032,1 hPa 0,0 l/m 8,8 km/h (2 Bft) SW 232 0 min 0,000 mm 0,0 UV-I 0 W/m 8,0 C 8,0 C 16,1 km/h (3 Bft) 100,00 %
29.10.2016 01:36 9,7 C 89 % 1032,2 hPa 0,0 l/m 6,9 km/h (2 Bft) W-SW 239 0 min 0,000 mm 0,0 UV-I 0 W/m 8,0 C 9,3 C 12,9 km/h (3 Bft) 100,00 %
29.10.2016 01:38 9,7 C 89 % 1032,1 hPa 0,0 l/m 7,8 km/h (2 Bft) SW 236 0 min 0,000 mm 0,0 UV-I 0 W/m 8,0 C 8,7 C 14,5 km/h (3 Bft) 100,00 %
29.10.2016 01:40 9,7 C 89 % 1032,1 hPa 0,0 l/m 10,0 km/h (2 Bft) SW 230 0 min 0,000 mm 0,0 UV-I 0 W/m 8,0 C 7,3 C 14,5 km/h (3 Bft) 100,00 %
29.10.2016 01:42 9,8 C 89 % 1032,0 hPa 0,0 l/m 10,6 km/h (2 Bft) SW 223 0 min 0,000 mm 0,0 UV-I 0 W/m 8,1 C 7,0 C 14,5 km/h (3 Bft) 98,18 %
29.10.2016 01:44 9,8 C 89 % 1032,0 hPa 0,0 l/m 11,5 km/h (2 Bft) SW 229 0 min 0,000 mm 0,0 UV-I 0 W/m 8,1 C 6,5 C 16,1 km/h (3 Bft) 100,00 %
29.10.2016 01:46 9,8 C 89 % 1032,0 hPa 0,0 l/m 8,7 km/h (2 Bft) W-SW 256 0 min 0,000 mm 0,0 UV-I 0 W/m 8,1 C 8,2 C 12,9 km/h (3 Bft) 100,00 %
29.10.2016 01:48 9,8 C 89 % 1032,0 hPa 0,0 l/m 8,1 km/h (2 Bft) SW 234 0 min 0,000 mm 0,0 UV-I 0 W/m 8,1 C 8,6 C 11,3 km/h (2 Bft) 100,00 %
29.10.2016 01:50 9,8 C 89 % 1032,1 hPa 0,0 l/m 7,6 km/h (2 Bft) W-SW 247 0 min 0,000 mm 0,0 UV-I 0 W/m 8,1 C 8,9 C 11,3 km/h (2 Bft) 100,00 %
29.10.2016 01:52 9,8 C 89 % 1032,1 hPa 0,0 l/m 6,4 km/h (2 Bft) SW 230 0 min 0,000 mm 0,0 UV-I 0 W/m 8,1 C 9,8 C 11,3 km/h (2 Bft) 100,00 %
29.10.2016 01:54 9,8 C 89 % 1032,1 hPa 0,0 l/m 8,7 km/h (2 Bft) SW 232 0 min 0,000 mm 0,0 UV-I 0 W/m 8,1 C 8,2 C 12,9 km/h (3 Bft) 100,00 %
29.10.2016 01:56 9,8 C 89 % 1032,1 hPa 0,0 l/m 7,4 km/h (2 Bft) SW 234 0 min 0,000 mm 0,0 UV-I 0 W/m 8,1 C 9,1 C 14,5 km/h (3 Bft) 100,00 %
29.10.2016 01:58 9,8 C 89 % 1032,0 hPa 0,0 l/m 7,4 km/h (2 Bft) SW 236 0 min 0,000 mm 0,0 UV-I 0 W/m 8,1 C 9,1 C 11,3 km/h (2 Bft) 100,00 %
29.10.2016 02:00 9,8 C 89 % 1032,0 hPa 0,0 l/m 8,2 km/h (2 Bft) W-SW 256 0 min 0,000 mm 0,0 UV-I 0 W/m 8,1 C 8,5 C 11,3 km/h (2 Bft) 97,56 %
29.10.2016 02:02 9,7 C 89 % 1032,0 hPa 0,0 l/m 8,5 km/h (2 Bft) W-SW 238 0 min 0,000 mm 0,0 UV-I 0 W/m 8,0 C 8,2 C 12,9 km/h (3 Bft) 93,18 %
29.10.2016 02:04 9,7 C 89 % 1031,9 hPa 0,0 l/m 6,7 km/h (2 Bft) W-SW 243 0 min 0,000 mm 0,0 UV-I 0 W/m 8,0 C 9,5 C 11,3 km/h (2 Bft) 98,00 %
29.10.2016 02:06 9,7 C 89 % 1031,9 hPa 0,0 l/m 5,4 km/h (1 Bft) SW 228 0 min 0,000 mm 0,0 UV-I 0 W/m 8,0 C 9,7 C 9,7 km/h (2 Bft) 96,00 %
29.10.2016 02:08 9,7 C 89 % 1032,0 hPa 0,0 l/m 8,1 km/h (2 Bft) SW 224 0 min 0,000 mm 0,0 UV-I 0 W/m 8,0 C 8,5 C 11,3 km/h (2 Bft) 94,74 %
29.10.2016 02:10 9,7 C 89 % 1032,0 hPa 0,0 l/m 8,2 km/h (2 Bft) W-SW 239 0 min 0,000 mm 0,0 UV-I 0 W/m 8,0 C 8,4 C 12,9 km/h (3 Bft) 98,11 %
29.10.2016 02:12 9,7 C 89 % 1032,0 hPa 0,0 l/m 8,0 km/h (2 Bft) W-SW 237 0 min 0,000 mm 0,0 UV-I 0 W/m 8,0 C 8,5 C 12,9 km/h (3 Bft) 97,56 %
29.10.2016 02:14 9,7 C 89 % 1032,0 hPa 0,0 l/m 8,6 km/h (2 Bft) SW 220 0 min 0,000 mm 0,0 UV-I 0 W/m 8,0 C 8,1 C 16,1 km/h (3 Bft) 96,43 %
29.10.2016 02:16 9,7 C 89 % 1032,0 hPa 0,0 l/m 9,3 km/h (2 Bft) SW 234 0 min 0,000 mm 0,0 UV-I 0 W/m 8,0 C 7,7 C 12,9 km/h (3 Bft) 97,37 %
29.10.2016 02:18 9,7 C 89 % 1032,0 hPa 0,0 l/m 9,8 km/h (2 Bft) SW 232 0 min 0,000 mm 0,0 UV-I 0 W/m 8,0 C 7,4 C 16,1 km/h (3 Bft) 94,34 %
29.10.2016 02:20 9,7 C 89 % 1032,1 hPa 0,0 l/m 10,9 km/h (2 Bft) S-SW 209 0 min 0,000 mm 0,0 UV-I 0 W/m 8,0 C 6,8 C 17,7 km/h (3 Bft) 97,44 %
29.10.2016 02:22 9,8 C 89 % 1032,1 hPa 0,0 l/m 8,8 km/h (2 Bft) W-SW 240 0 min 0,000 mm 0,0 UV-I 0 W/m 8,1 C 8,1 C 14,5 km/h (3 Bft) 96,36 %
29.10.2016 02:24 9,8 C 89 % 1032,1 hPa 0,0 l/m 8,7 km/h (2 Bft) SW 225 0 min 0,000 mm 0,0 UV-I 0 W/m 8,1 C 8,2 C 12,9 km/h (3 Bft) 98,00 %
29.10.2016 02:26 9,8 C 89 % 1032,1 hPa 0,0 l/m 8,3 km/h (2 Bft) SW 229 0 min 0,000 mm 0,0 UV-I 0 W/m 8,1 C 8,4 C 11,3 km/h (2 Bft) 97,62 %
29.10.2016 02:28 9,8 C 89 % 1032,1 hPa 0,0 l/m 7,8 km/h (2 Bft) W-SW 238 0 min 0,000 mm 0,0 UV-I 0 W/m 8,1 C 8,8 C 14,5 km/h (3 Bft) 97,56 %
29.10.2016 02:30 9,8 C 89 % 1032,1 hPa 0,0 l/m 9,4 km/h (2 Bft) W 271 0 min 0,000 mm 0,0 UV-I 0 W/m 8,1 C 7,7 C 12,9 km/h (3 Bft) 98,11 %
29.10.2016 02:32 9,8 C 89 % 1032,1 hPa 0,0 l/m 6,4 km/h (2 Bft) SW 214 0 min 0,000 mm 0,0 UV-I 0 W/m 8,1 C 9,8 C 9,7 km/h (2 Bft) 95,12 %
29.10.2016 02:34 9,8 C 89 % 1032,1 hPa 0,0 l/m 6,6 km/h (2 Bft) W-SW 256 0 min 0,000 mm 0,0 UV-I 0 W/m 8,1 C 9,7 C 11,3 km/h (2 Bft) 98,00 %
29.10.2016 02:36 9,8 C 89 % 1032,0 hPa 0,0 l/m 6,2 km/h (2 Bft) SW 236 0 min 0,000 mm 0,0 UV-I 0 W/m 8,1 C 9,8 C 11,3 km/h (2 Bft) 94,00 %
29.10.2016 02:38 9,8 C 89 % 1032,0 hPa 0,0 l/m 9,1 km/h (2 Bft) SW 234 0 min 0,000 mm 0,0 UV-I 0 W/m 8,1 C 7,9 C 12,9 km/h (3 Bft) 100,00 %
29.10.2016 02:40 9,8 C 89 % 1032,1 hPa 0,0 l/m 7,8 km/h (2 Bft) SW 230 0 min 0,000 mm 0,0 UV-I 0 W/m 8,1 C 8,8 C 11,3 km/h (2 Bft) 100,00 %
29.10.2016 02:42 9,7 C 89 % 1032,1 hPa 0,0 l/m 10,4 km/h (2 Bft) SW 232 0 min 0,000 mm 0,0 UV-I 0 W/m 8,0 C 7,0 C 16,1 km/h (3 Bft) 100,00 %
29.10.2016 02:44 9,7 C 89 % 1032,1 hPa 0,0 l/m 8,8 km/h (2 Bft) SW 233 0 min 0,000 mm 0,0 UV-I 0 W/m 8,0 C 8,0 C 12,9 km/h (3 Bft) 100,00 %
29.10.2016 02:46 9,7 C 89 % 1032,1 hPa 0,0 l/m 6,5 km/h (2 Bft) SW 226 0 min 0,000 mm 0,0 UV-I 0 W/m 8,0 C 9,7 C 9,7 km/h (2 Bft) 97,56 %
29.10.2016 02:48 9,7 C 90 % 1032,2 hPa 0,0 l/m 5,4 km/h (1 Bft) SW 227 0 min 0,000 mm 0,0 UV-I 0 W/m 8,1 C 9,7 C 6,4 km/h (2 Bft) 98,00 %
29.10.2016 02:50 9,7 C 90 % 1032,1 hPa 0,0 l/m 6,7 km/h (2 Bft) W-SW 242 0 min 0,000 mm 0,0 UV-I 0 W/m 8,1 C 9,5 C 11,3 km/h (2 Bft) 100,00 %
29.10.2016 02:52 9,6 C 90 % 1032,2 hPa 0,0 l/m 7,6 km/h (2 Bft) SW 227 0 min 0,000 mm 0,0 UV-I 0 W/m 8,0 C 8,7 C 12,9 km/h (3 Bft) 98,33 %
29.10.2016 02:54 9,6 C 90 % 1032,2 hPa 0,0 l/m 9,8 km/h (2 Bft) W-SW 242 0 min 0,000 mm 0,0 UV-I 0 W/m 8,0 C 7,3 C 14,5 km/h (3 Bft) 100,00 %
29.10.2016 02:56 9,6 C 90 % 1032,2 hPa 0,0 l/m 6,7 km/h (2 Bft) W-SW 248 0 min 0,000 mm 0,0 UV-I 0 W/m 8,0 C 9,4 C 11,3 km/h (2 Bft) 100,00 %
29.10.2016 02:58 9,6 C 90 % 1032,1 hPa 0,0 l/m 5,8 km/h (2 Bft) SW 225 0 min 0,000 mm 0,0 UV-I 0 W/m 8,0 C 9,6 C 11,3 km/h (2 Bft) 100,00 %
29.10.2016 03:00 9,6 C 90 % 1032,1 hPa 0,0 l/m 6,5 km/h (2 Bft) W-SW 239 0 min 0,000 mm 0,0 UV-I 0 W/m 8,0 C 9,6 C 12,9 km/h (3 Bft) 100,00 %
29.10.2016 03:02 9,5 C 91 % 1032,1 hPa 0,2 l/m 4,7 km/h (1 Bft) SW 230 0 min 0,000 mm 0,0 UV-I 0 W/m 8,1 C 9,5 C 8,0 km/h (2 Bft) 100,00 %
29.10.2016 03:04 9,5 C 91 % 1032,1 hPa 0,0 l/m 6,4 km/h (2 Bft) W-SW 238 0 min 0,000 mm 0,0 UV-I 0 W/m 8,1 C 9,5 C 12,9 km/h (3 Bft) 100,00 %
29.10.2016 03:06 9,4 C 91 % 1032,0 hPa 0,0 l/m 5,3 km/h (1 Bft) SW 217 0 min 0,000 mm 0,0 UV-I 0 W/m 8,0 C 9,4 C 9,7 km/h (2 Bft) 100,00 %
29.10.2016 03:08 9,4 C 91 % 1032,0 hPa 0,0 l/m 4,3 km/h (1 Bft) W-SW 237 0 min 0,000 mm 0,0 UV-I 0 W/m 8,0 C 9,4 C 8,0 km/h (2 Bft) 100,00 %
29.10.2016 03:10 9,4 C 92 % 1032,0 hPa 0,0 l/m 5,7 km/h (1 Bft) W-SW 238 0 min 0,000 mm 0,0 UV-I 0 W/m 8,2 C 9,4 C 9,7 km/h (2 Bft) 100,00 %
29.10.2016 03:12 9,4 C 92 % 1031,9 hPa 0,0 l/m 3,6 km/h (1 Bft) SW 215 0 min 0,000 mm 0,0 UV-I 0 W/m 8,2 C 9,4 C 8,0 km/h (2 Bft) 100,00 %
29.10.2016 03:14 9,3 C 92 % 1031,9 hPa 0,0 l/m 6,2 km/h (2 Bft) SW 227 0 min 0,000 mm 0,0 UV-I 0 W/m 8,1 C 9,3 C 8,0 km/h (2 Bft) 97,73 %
29.10.2016 03:16 9,3 C 92 % 1032,0 hPa 0,0 l/m 5,8 km/h (2 Bft) W-SW 240 0 min 0,000 mm 0,0 UV-I 0 W/m 8,1 C 9,3 C 8,0 km/h (2 Bft) 100,00 %
29.10.2016 03:18 9,3 C 92 % 1032,0 hPa 0,0 l/m 4,5 km/h (1 Bft) W-SW 255 0 min 0,000 mm 0,0 UV-I 0 W/m 8,1 C 9,3 C 6,4 km/h (2 Bft) 98,00 %
29.10.2016 03:20 9,3 C 92 % 1032,0 hPa 0,0 l/m 6,6 km/h (2 Bft) W 261 0 min 0,000 mm 0,0 UV-I 0 W/m 8,1 C 9,2 C 11,3 km/h (2 Bft) 100,00 %
29.10.2016 03:22 9,3 C 92 % 1032,0 hPa 0,0 l/m 6,8 km/h (2 Bft) W 273 0 min 0,000 mm 0,0 UV-I 0 W/m 8,1 C 9,0 C 11,3 km/h (2 Bft) 100,00 %
29.10.2016 03:24 9,3 C 92 % 1032,0 hPa 0,0 l/m 6,5 km/h (2 Bft) W-SW 244 0 min 0,000 mm 0,0 UV-I 0 W/m 8,1 C 9,3 C 9,7 km/h (2 Bft) 100,00 %
29.10.2016 03:26 9,3 C 92 % 1032,0 hPa 0,0 l/m 6,3 km/h (2 Bft) W 259 0 min 0,000 mm 0,0 UV-I 0 W/m 8,1 C 9,3 C 11,3 km/h (2 Bft) 100,00 %
29.10.2016 03:28 9,3 C 92 % 1032,0 hPa 0,0 l/m 6,5 km/h (2 Bft) W-NW 293 0 min 0,000 mm 0,0 UV-I 0 W/m 8,1 C 9,3 C 11,3 km/h (2 Bft) 100,00 %
29.10.2016 03:30 9,3 C 92 % 1031,9 hPa 0,0 l/m 4,8 km/h (1 Bft) W-NW 292 0 min 0,000 mm 0,0 UV-I 0 W/m 8,1 C 9,3 C 9,7 km/h (2 Bft) 100,00 %
29.10.2016 03:32 9,3 C 92 % 1031,9 hPa 0,0 l/m 4,4 km/h (1 Bft) W 276 0 min 0,000 mm 0,0 UV-I 0 W/m 8,1 C 9,3 C 8,0 km/h (2 Bft) 100,00 %
29.10.2016 03:34 9,3 C 93 % 1032,0 hPa 0,0 l/m 3,5 km/h (1 Bft) W 277 0 min 0,000 mm 0,0 UV-I 0 W/m 8,2 C 9,3 C 6,4 km/h (2 Bft) 100,00 %
29.10.2016 03:36 9,3 C 93 % 1031,9 hPa 0,0 l/m 2,0 km/h (1 Bft) W 277 0 min 0,000 mm 0,0 UV-I 0 W/m 8,2 C 9,3 C 4,8 km/h (1 Bft) 100,00 %
29.10.2016 03:38 9,2 C 93 % 1031,9 hPa 0,2 l/m 2,3 km/h (1 Bft) W-NW 288 0 min 0,000 mm 0,0 UV-I 0 W/m 8,1 C 9,2 C 4,8 km/h (1 Bft) 100,00 %
29.10.2016 03:40 9,1 C 93 % 1032,0 hPa 0,0 l/m 0,5 km/h (0 Bft) W-NW 288 0 min 0,000 mm 0,0 UV-I 0 W/m 8,0 C 9,1 C 1,6 km/h (1 Bft) 100,00 %
29.10.2016 03:42 9,1 C 94 % 1031,9 hPa 0,0 l/m 0,9 km/h (0 Bft) W-NW 288 0 min 0,000 mm 0,0 UV-I 0 W/m 8,2 C 9,1 C 3,2 km/h (1 Bft) 100,00 %
29.10.2016 03:44 9,0 C 94 % 1031,9 hPa 0,0 l/m 2,1 km/h (1 Bft) W-NW 288 0 min 0,000 mm 0,0 UV-I 0 W/m 8,1 C 9,0 C 3,2 km/h (1 Bft) 98,11 %
29.10.2016 03:46 9,0 C 94 % 1031,9 hPa 0,0 l/m 3,6 km/h (1 Bft) W 271 0 min 0,000 mm 0,0 UV-I 0 W/m 8,1 C 9,0 C 4,8 km/h (1 Bft) 100,00 %
29.10.2016 03:48 9,0 C 94 % 1031,9 hPa 0,0 l/m 3,9 km/h (1 Bft) W-SW 242 0 min 0,000 mm 0,0 UV-I 0 W/m 8,1 C 9,0 C 6,4 km/h (2 Bft) 100,00 %
29.10.2016 03:50 9,0 C 94 % 1031,9 hPa 0,0 l/m 4,2 km/h (1 Bft) W-SW 243 0 min 0,000 mm 0,0 UV-I 0 W/m 8,1 C 9,0 C 6,4 km/h (2 Bft) 100,00 %
29.10.2016 03:52 9,0 C 94 % 1031,9 hPa 0,0 l/m 2,7 km/h (1 Bft) W-SW 244 0 min 0,000 mm 0,0 UV-I 0 W/m 8,1 C 9,0 C 4,8 km/h (1 Bft) 100,00 %
29.10.2016 03:54 9,0 C 94 % 1031,9 hPa 0,0 l/m 3,5 km/h (1 Bft) W-SW 238 0 min 0,000 mm 0,0 UV-I 0 W/m 8,1 C 9,0 C 6,4 km/h (2 Bft) 100,00 %
29.10.2016 03:56 9,1 C 94 % 1031,9 hPa 0,0 l/m 2,9 km/h (1 Bft) W 259 0 min 0,000 mm 0,0 UV-I 0 W/m 8,2 C 9,1 C 4,8 km/h (1 Bft) 100,00 %
29.10.2016 03:58 9,1 C 94 % 1031,8 hPa 0,0 l/m 3,5 km/h (1 Bft) W-SW 246 0 min 0,000 mm 0,0 UV-I 0 W/m 8,2 C 9,1 C 6,4 km/h (2 Bft) 100,00 %
29.10.2016 04:00 9,1 C 94 % 1031,9 hPa 0,0 l/m 3,0 km/h (1 Bft) W 263 0 min 0,000 mm 0,0 UV-I 0 W/m 8,2 C 9,1 C 6,4 km/h (2 Bft) 100,00 %
29.10.2016 04:02 9,1 C 94 % 1031,9 hPa 0,0 l/m 1,7 km/h (1 Bft) W 263 0 min 0,000 mm 0,0 UV-I 0 W/m 8,2 C 9,1 C 3,2 km/h (1 Bft) 100,00 %
29.10.2016 04:04 9,1 C 94 % 1032,0 hPa 0,0 l/m 2,1 km/h (1 Bft) W 263 0 min 0,000 mm 0,0 UV-I 0 W/m 8,2 C 9,1 C 4,8 km/h (1 Bft) 100,00 %
29.10.2016 04:06 9,1 C 94 % 1031,9 hPa 0,0 l/m 2,1 km/h (1 Bft) W 263 0 min 0,000 mm 0,0 UV-I 0 W/m 8,2 C 9,1 C 4,8 km/h (1 Bft) 97,87 %
29.10.2016 04:08 9,0 C 94 % 1032,0 hPa 0,0 l/m 2,5 km/h (1 Bft) W 263 0 min 0,000 mm 0,0 UV-I 0 W/m 8,1 C 9,0 C 4,8 km/h (1 Bft) 97,87 %
29.10.2016 04:10 9,0 C 95 % 1032,0 hPa 0,0 l/m 2,4 km/h (1 Bft) W 263 0 min 0,000 mm 0,0 UV-I 0 W/m 8,2 C 9,0 C 3,2 km/h (1 Bft) 97,56 %
29.10.2016 04:12 9,0 C 95 % 1032,0 hPa 0,0 l/m 3,0 km/h (1 Bft) W 263 0 min 0,000 mm 0,0 UV-I 0 W/m 8,2 C 9,0 C 4,8 km/h (1 Bft) 96,00 %
29.10.2016 04:14 8,9 C 95 % 1032,0 hPa 0,0 l/m 4,5 km/h (1 Bft) W 263 0 min 0,000 mm 0,0 UV-I 0 W/m 8,1 C 8,9 C 6,4 km/h (2 Bft) 97,56 %
29.10.2016 04:16 8,9 C 95 % 1032,0 hPa 0,0 l/m 3,9 km/h (1 Bft) W 260 0 min 0,000 mm 0,0 UV-I 0 W/m 8,1 C 8,9 C 4,8 km/h (1 Bft) 98,00 %
29.10.2016 04:18 8,9 C 95 % 1032,0 hPa 0,0 l/m 6,3 km/h (2 Bft) W 264 0 min 0,000 mm 0,0 UV-I 0 W/m 8,1 C 8,9 C 11,3 km/h (2 Bft) 94,34 %
29.10.2016 04:20 8,9 C 95 % 1032,0 hPa 0,2 l/m 5,1 km/h (1 Bft) SW 219 0 min 0,000 mm 0,0 UV-I 0 W/m 8,1 C 8,9 C 8,0 km/h (2 Bft) 97,87 %
29.10.2016 04:22 8,9 C 95 % 1032,0 hPa 0,0 l/m 6,2 km/h (2 Bft) W-SW 245 0 min 0,000 mm 0,0 UV-I 0 W/m 8,1 C 8,9 C 11,3 km/h (2 Bft) 94,44 %
29.10.2016 04:24 8,9 C 95 % 1032,0 hPa 0,0 l/m 10,3 km/h (2 Bft) W-SW 248 0 min 0,000 mm 0,0 UV-I 0 W/m 8,1 C 6,2 C 14,5 km/h (3 Bft) 96,23 %
29.10.2016 04:26 8,9 C 95 % 1031,9 hPa 0,0 l/m 7,4 km/h (2 Bft) SW 233 0 min 0,000 mm 0,0 UV-I 0 W/m 8,1 C 8,1 C 12,9 km/h (3 Bft) 97,87 %
29.10.2016 04:28 8,9 C 95 % 1031,9 hPa 0,0 l/m 11,5 km/h (2 Bft) SW 236 0 min 0,000 mm 0,0 UV-I 0 W/m 8,1 C 5,5 C 17,7 km/h (3 Bft) 95,92 %
29.10.2016 04:30 8,9 C 95 % 1031,9 hPa 0,0 l/m 8,8 km/h (2 Bft) W-SW 240 0 min 0,000 mm 0,0 UV-I 0 W/m 8,1 C 7,1 C 12,9 km/h (3 Bft) 97,87 %
29.10.2016 04:32 8,9 C 95 % 1031,8 hPa 0,2 l/m 6,3 km/h (2 Bft) SW 225 0 min 0,000 mm 0,0 UV-I 0 W/m 8,1 C 8,9 C 9,7 km/h (2 Bft) 97,87 %
29.10.2016 04:34 8,9 C 95 % 1031,8 hPa 0,0 l/m 8,9 km/h (2 Bft) W-SW 242 0 min 0,000 mm 0,0 UV-I 0 W/m 8,1 C 7,1 C 14,5 km/h (3 Bft) 97,87 %
29.10.2016 04:36 8,9 C 95 % 1031,8 hPa 0,0 l/m 8,1 km/h (2 Bft) SW 234 0 min 0,000 mm 0,0 UV-I 0 W/m 8,1 C 7,6 C 14,5 km/h (3 Bft) 95,74 %
29.10.2016 04:38 8,9 C 95 % 1031,8 hPa 0,0 l/m 6,2 km/h (2 Bft) S-SW 197 0 min 0,000 mm 0,0 UV-I 0 W/m 8,1 C 8,9 C 12,9 km/h (3 Bft) 95,74 %
29.10.2016 04:40 8,8 C 95 % 1031,7 hPa 0,0 l/m 7,5 km/h (2 Bft) SW 232 0 min 0,000 mm 0,0 UV-I 0 W/m 8,0 C 8,0 C 12,9 km/h (3 Bft) 100,00 %
29.10.2016 04:42 8,8 C 95 % 1031,7 hPa 0,0 l/m 8,0 km/h (2 Bft) W-SW 256 0 min 0,000 mm 0,0 UV-I 0 W/m 8,0 C 7,6 C 14,5 km/h (3 Bft) 97,87 %
29.10.2016 04:44 8,8 C 96 % 1031,7 hPa 0,0 l/m 7,3 km/h (2 Bft) W-SW 252 0 min 0,000 mm 0,0 UV-I 0 W/m 8,2 C 8,1 C 12,9 km/h (3 Bft) 97,14 %
29.10.2016 04:46 8,8 C 96 % 1031,7 hPa 0,0 l/m 6,4 km/h (2 Bft) S-SW 207 0 min 0,000 mm 0,0 UV-I 0 W/m 8,2 C 8,8 C 9,7 km/h (2 Bft) 98,00 %
29.10.2016 04:48 8,8 C 96 % 1031,7 hPa 0,0 l/m 7,4 km/h (2 Bft) W-SW 250 0 min 0,000 mm 0,0 UV-I 0 W/m 8,2 C 8,0 C 9,7 km/h (2 Bft) 100,00 %
29.10.2016 04:50 8,8 C 96 % 1031,7 hPa 0,2 l/m 7,6 km/h (2 Bft) W-SW 250 0 min 0,000 mm 0,0 UV-I 0 W/m 8,2 C 7,9 C 12,9 km/h (3 Bft) 100,00 %
29.10.2016 04:52 8,8 C 96 % 1031,7 hPa 0,0 l/m 6,9 km/h (2 Bft) SW 230 0 min 0,000 mm 0,0 UV-I 0 W/m 8,2 C 8,4 C 12,9 km/h (3 Bft) 97,87 %
29.10.2016 04:54 8,8 C 96 % 1031,7 hPa 0,0 l/m 6,9 km/h (2 Bft) SW 234 0 min 0,000 mm 0,0 UV-I 0 W/m 8,2 C 8,4 C 11,3 km/h (2 Bft) 100,00 %
29.10.2016 04:56 8,8 C 96 % 1031,7 hPa 0,0 l/m 7,2 km/h (2 Bft) W-SW 247 0 min 0,000 mm 0,0 UV-I 0 W/m 8,2 C 8,2 C 11,3 km/h (2 Bft) 97,92 %
29.10.2016 04:58 8,8 C 96 % 1031,7 hPa 0,0 l/m 9,0 km/h (2 Bft) SW 227 0 min 0,000 mm 0,0 UV-I 0 W/m 8,2 C 6,9 C 14,5 km/h (3 Bft) 100,00 %
29.10.2016 05:00 8,8 C 96 % 1031,7 hPa 0,0 l/m 9,1 km/h (2 Bft) W-SW 246 0 min 0,000 mm 0,0 UV-I 0 W/m 8,2 C 6,8 C 12,9 km/h (3 Bft) 100,00 %
29.10.2016 05:02 8,8 C 96 % 1031,8 hPa 0,0 l/m 7,6 km/h (2 Bft) W-SW 249 0 min 0,000 mm 0,0 UV-I 0 W/m 8,2 C 7,9 C 14,5 km/h (3 Bft) 100,00 %
29.10.2016 05:04 8,7 C 96 % 1031,7 hPa 0,0 l/m 5,7 km/h (1 Bft) W-SW 258 0 min 0,000 mm 0,0 UV-I 0 W/m 8,1 C 8,7 C 11,3 km/h (2 Bft) 95,74 %
29.10.2016 05:06 8,8 C 96 % 1031,7 hPa 0,0 l/m 6,8 km/h (2 Bft) W-NW 284 0 min 0,000 mm 0,0 UV-I 0 W/m 8,2 C 8,5 C 12,9 km/h (3 Bft) 97,87 %
29.10.2016 05:08 8,8 C 96 % 1031,8 hPa 0,0 l/m 8,0 km/h (2 Bft) SW 235 0 min 0,000 mm 0,0 UV-I 0 W/m 8,2 C 7,6 C 11,3 km/h (2 Bft) 100,00 %
29.10.2016 05:10 8,8 C 96 % 1031,7 hPa 0,0 l/m 6,9 km/h (2 Bft) W-SW 254 0 min 0,000 mm 0,0 UV-I 0 W/m 8,2 C 8,4 C 9,7 km/h (2 Bft) 100,00 %
29.10.2016 05:12 8,8 C 96 % 1031,7 hPa 0,0 l/m 6,1 km/h (2 Bft) SW 227 0 min 0,000 mm 0,0 UV-I 0 W/m 8,2 C 8,8 C 11,3 km/h (2 Bft) 100,00 %
29.10.2016 05:14 8,8 C 96 % 1031,8 hPa 0,0 l/m 9,7 km/h (2 Bft) W-SW 254 0 min 0,000 mm 0,0 UV-I 0 W/m 8,2 C 6,5 C 16,1 km/h (3 Bft) 100,00 %
29.10.2016 05:16 8,7 C 96 % 1031,7 hPa 0,2 l/m 7,9 km/h (2 Bft) W-SW 243 0 min 0,000 mm 0,0 UV-I 0 W/m 8,1 C 7,6 C 12,9 km/h (3 Bft) 100,00 %
29.10.2016 05:18 8,8 C 96 % 1031,7 hPa 0,0 l/m 6,3 km/h (2 Bft) W-SW 254 0 min 0,000 mm 0,0 UV-I 0 W/m 8,2 C 8,8 C 9,7 km/h (2 Bft) 100,00 %
29.10.2016 05:20 8,7 C 96 % 1031,7 hPa 0,0 l/m 7,7 km/h (2 Bft) W-SW 246 0 min 0,000 mm 0,0 UV-I 0 W/m 8,1 C 7,7 C 11,3 km/h (2 Bft) 100,00 %
29.10.2016 05:22 8,7 C 96 % 1031,8 hPa 0,0 l/m 7,9 km/h (2 Bft) W-SW 246 0 min 0,000 mm 0,0 UV-I 0 W/m 8,1 C 7,6 C 11,3 km/h (2 Bft) 97,87 %
29.10.2016 05:24 8,7 C 96 % 1031,8 hPa 0,0 l/m 6,8 km/h (2 Bft) W-SW 243 0 min 0,000 mm 0,0 UV-I 0 W/m 8,1 C 8,4 C 9,7 km/h (2 Bft) 97,87 %
29.10.2016 05:26 8,7 C 96 % 1031,7 hPa 0,0 l/m 8,0 km/h (2 Bft) W-SW 254 0 min 0,000 mm 0,0 UV-I 0 W/m 8,1 C 7,5 C 12,9 km/h (3 Bft) 100,00 %
29.10.2016 05:28 8,7 C 97 % 1031,7 hPa 0,0 l/m 7,2 km/h (2 Bft) W-SW 257 0 min 0,000 mm 0,0 UV-I 0 W/m 8,3 C 8,1 C 12,9 km/h (3 Bft) 100,00 %
29.10.2016 05:30 8,7 C 97 % 1031,6 hPa 0,0 l/m 8,0 km/h (2 Bft) W-SW 250 0 min 0,000 mm 0,0 UV-I 0 W/m 8,3 C 7,5 C 12,9 km/h (3 Bft) 100,00 %
29.10.2016 05:32 8,7 C 97 % 1031,7 hPa 0,0 l/m 7,9 km/h (2 Bft) W-SW 247 0 min 0,000 mm 0,0 UV-I 0 W/m 8,3 C 7,6 C 12,9 km/h (3 Bft) 98,00 %
29.10.2016 05:34 8,7 C 97 % 1031,7 hPa 0,0 l/m 9,6 km/h (2 Bft) SW 226 0 min 0,000 mm 0,0 UV-I 0 W/m 8,3 C 6,4 C 14,5 km/h (3 Bft) 100,00 %
29.10.2016 05:36 8,7 C 97 % 1031,6 hPa 0,0 l/m 10,7 km/h (2 Bft) SW 226 0 min 0,000 mm 0,0 UV-I 0 W/m 8,3 C 5,7 C 16,1 km/h (3 Bft) 97,87 %
29.10.2016 05:38 8,8 C 97 % 1031,6 hPa 0,0 l/m 7,9 km/h (2 Bft) W-SW 254 0 min 0,000 mm 0,0 UV-I 0 W/m 8,4 C 7,7 C 16,1 km/h (3 Bft) 100,00 %
29.10.2016 05:40 8,7 C 97 % 1031,6 hPa 0,0 l/m 8,6 km/h (2 Bft) W-SW 243 0 min 0,000 mm 0,0 UV-I 0 W/m 8,3 C 7,1 C 12,9 km/h (3 Bft) 97,87 %
29.10.2016 05:42 8,8 C 97 % 1031,5 hPa 0,0 l/m 9,4 km/h (2 Bft) W-SW 238 0 min 0,000 mm 0,0 UV-I 0 W/m 8,4 C 6,6 C 14,5 km/h (3 Bft) 100,00 %
29.10.2016 05:44 8,8 C 97 % 1031,5 hPa 0,0 l/m 10,4 km/h (2 Bft) W-SW 240 0 min 0,000 mm 0,0 UV-I 0 W/m 8,4 C 6,0 C 16,1 km/h (3 Bft) 97,87 %
29.10.2016 05:46 8,8 C 97 % 1031,5 hPa 0,0 l/m 9,5 km/h (2 Bft) SW 236 0 min 0,000 mm 0,0 UV-I 0 W/m 8,4 C 6,6 C 14,5 km/h (3 Bft) 100,00 %
29.10.2016 05:48 8,8 C 97 % 1031,5 hPa 0,0 l/m 10,4 km/h (2 Bft) SW 229 0 min 0,000 mm 0,0 UV-I 0 W/m 8,4 C 6,0 C 14,5 km/h (3 Bft) 100,00 %
29.10.2016 05:50 8,8 C 97 % 1031,5 hPa 0,0 l/m 12,7 km/h (3 Bft) W-SW 242 0 min 0,000 mm 0,0 UV-I 0 W/m 8,4 C 4,8 C 17,7 km/h (3 Bft) 100,00 %
29.10.2016 05:52 8,8 C 97 % 1031,5 hPa 0,0 l/m 9,5 km/h (2 Bft) W-SW 253 0 min 0,000 mm 0,0 UV-I 0 W/m 8,4 C 6,6 C 14,5 km/h (3 Bft) 100,00 %
29.10.2016 05:54 8,8 C 97 % 1031,5 hPa 0,0 l/m 9,1 km/h (2 Bft) W-SW 239 0 min 0,000 mm 0,0 UV-I 0 W/m 8,4 C 6,8 C 17,7 km/h (3 Bft) 100,00 %
29.10.2016 05:56 8,8 C 97 % 1031,5 hPa 0,0 l/m 8,5 km/h (2 Bft) W-SW 241 0 min 0,000 mm 0,0 UV-I 0 W/m 8,4 C 7,2 C 12,9 km/h (3 Bft) 97,87 %
29.10.2016 05:58 8,8 C 97 % 1031,4 hPa 0,0 l/m 8,2 km/h (2 Bft) W 259 0 min 0,000 mm 0,0 UV-I 0 W/m 8,4 C 7,5 C 14,5 km/h (3 Bft) 100,00 %
29.10.2016 06:00 8,8 C 97 % 1031,4 hPa 0,2 l/m 12,4 km/h (3 Bft) W-SW 252 0 min 0,000 mm 0,0 UV-I 0 W/m 8,4 C 4,9 C 20,9 km/h (4 Bft) 100,00 %
29.10.2016 06:02 8,8 C 97 % 1031,4 hPa 0,0 l/m 12,6 km/h (3 Bft) W-SW 254 0 min 0,000 mm 0,0 UV-I 0 W/m 8,4 C 4,8 C 19,3 km/h (3 Bft) 100,00 %
29.10.2016 06:04 8,8 C 97 % 1031,4 hPa 0,0 l/m 12,4 km/h (3 Bft) W-SW 244 0 min 0,000 mm 0,0 UV-I 0 W/m 8,4 C 4,9 C 19,3 km/h (3 Bft) 100,00 %
29.10.2016 06:06 8,8 C 97 % 1031,4 hPa 0,0 l/m 11,6 km/h (2 Bft) SW 236 0 min 0,000 mm 0,0 UV-I 0 W/m 8,4 C 5,3 C 17,7 km/h (3 Bft) 100,00 %
29.10.2016 06:08 8,8 C 97 % 1031,4 hPa 0,0 l/m 10,2 km/h (2 Bft) W 273 0 min 0,000 mm 0,0 UV-I 0 W/m 8,4 C 6,1 C 14,5 km/h (3 Bft) 97,87 %
29.10.2016 06:10 8,8 C 97 % 1031,4 hPa 0,0 l/m 11,3 km/h (2 Bft) SW 219 0 min 0,000 mm 0,0 UV-I 0 W/m 8,4 C 5,5 C 17,7 km/h (3 Bft) 97,87 %
29.10.2016 06:12 8,8 C 97 % 1031,4 hPa 0,0 l/m 11,4 km/h (2 Bft) W-SW 240 0 min 0,000 mm 0,0 UV-I 0 W/m 8,4 C 5,5 C 19,3 km/h (3 Bft) 98,00 %
29.10.2016 06:14 8,8 C 97 % 1031,4 hPa 0,0 l/m 10,8 km/h (2 Bft) W-SW 244 0 min 0,000 mm 0,0 UV-I 0 W/m 8,4 C 5,8 C 19,3 km/h (3 Bft) 97,62 %
29.10.2016 06:16 8,8 C 97 % 1031,3 hPa 0,0 l/m 13,9 km/h (3 Bft) W-SW 254 0 min 0,000 mm 0,0 UV-I 0 W/m 8,4 C 4,2 C 20,9 km/h (4 Bft) 97,87 %
29.10.2016 06:18 8,8 C 97 % 1031,3 hPa 0,2 l/m 12,8 km/h (3 Bft) W-SW 255 0 min 0,000 mm 0,0 UV-I 0 W/m 8,4 C 4,7 C 19,3 km/h (3 Bft) 95,74 %
29.10.2016 06:20 8,8 C 97 % 1031,3 hPa 0,0 l/m 14,8 km/h (3 Bft) W 271 0 min 0,000 mm 0,0 UV-I 0 W/m 8,4 C 3,8 C 22,5 km/h (4 Bft) 93,62 %
29.10.2016 06:22 8,8 C 97 % 1031,2 hPa 0,0 l/m 15,4 km/h (3 Bft) W-SW 248 0 min 0,000 mm 0,0 UV-I 0 W/m 8,4 C 3,5 C 22,5 km/h (4 Bft) 96,00 %
29.10.2016 06:24 8,8 C 97 % 1031,2 hPa 0,0 l/m 13,3 km/h (3 Bft) W-SW 242 0 min 0,000 mm 0,0 UV-I 0 W/m 8,4 C 4,5 C 20,9 km/h (4 Bft) 97,96 %
29.10.2016 06:26 8,8 C 97 % 1031,2 hPa 0,0 l/m 13,3 km/h (3 Bft) SW 233 0 min 0,000 mm 0,0 UV-I 0 W/m 8,4 C 4,5 C 20,9 km/h (4 Bft) 97,87 %
29.10.2016 06:28 8,8 C 97 % 1031,2 hPa 0,0 l/m 13,3 km/h (3 Bft) W 260 0 min 0,000 mm 0,0 UV-I 0 W/m 8,4 C 4,5 C 19,3 km/h (3 Bft) 98,00 %
29.10.2016 06:30 8,8 C 97 % 1031,2 hPa 0,0 l/m 10,9 km/h (2 Bft) W-SW 248 0 min 0,000 mm 0,0 UV-I 0 W/m 8,4 C 5,7 C 19,3 km/h (3 Bft) 95,65 %
29.10.2016 06:32 8,8 C 97 % 1031,2 hPa 0,0 l/m 10,5 km/h (2 Bft) SW 229 0 min 0,000 mm 0,0 UV-I 0 W/m 8,4 C 6,0 C 16,1 km/h (3 Bft) 98,39 %
29.10.2016 06:34 8,8 C 97 % 1031,2 hPa 0,0 l/m 11,4 km/h (2 Bft) W-SW 250 0 min 0,000 mm 0,0 UV-I 0 W/m 8,4 C 5,5 C 17,7 km/h (3 Bft) 97,87 %
29.10.2016 06:36 8,8 C 97 % 1031,2 hPa 0,0 l/m 10,7 km/h (2 Bft) W-SW 256 0 min 0,000 mm 0,0 UV-I 0 W/m 8,4 C 5,9 C 17,7 km/h (3 Bft) 95,74 %
29.10.2016 06:38 8,8 C 96 % 1031,2 hPa 0,0 l/m 12,5 km/h (3 Bft) W-SW 256 0 min 0,000 mm 0,0 UV-I 0 W/m 8,2 C 4,9 C 20,9 km/h (4 Bft) 97,87 %
29.10.2016 06:40 8,8 C 96 % 1031,2 hPa 0,0 l/m 14,2 km/h (3 Bft) SW 221 0 min 0,000 mm 0,0 UV-I 0 W/m 8,2 C 4,0 C 19,3 km/h (3 Bft) 93,62 %
29.10.2016 06:42 8,8 C 96 % 1031,2 hPa 0,0 l/m 13,9 km/h (3 Bft) W-SW 248 0 min 0,000 mm 0,0 UV-I 0 W/m 8,2 C 4,2 C 22,5 km/h (4 Bft) 97,87 %
29.10.2016 06:44 8,9 C 96 % 1031,1 hPa 0,0 l/m 13,1 km/h (3 Bft) SW 232 0 min 0,000 mm 0,0 UV-I 0 W/m 8,3 C 4,7 C 16,1 km/h (3 Bft) 97,87 %
29.10.2016 06:46 8,9 C 96 % 1031,2 hPa 0,0 l/m 11,6 km/h (2 Bft) W-SW 251 0 min 0,000 mm 0,0 UV-I 0 W/m 8,3 C 5,5 C 19,3 km/h (3 Bft) 100,00 %
29.10.2016 06:48 8,9 C 96 % 1031,1 hPa 0,0 l/m 12,5 km/h (3 Bft) W-SW 239 0 min 0,000 mm 0,0 UV-I 0 W/m 8,3 C 5,0 C 19,3 km/h (3 Bft) 98,00 %
29.10.2016 06:50 8,9 C 96 % 1031,1 hPa 0,0 l/m 14,4 km/h (3 Bft) SW 229 0 min 0,000 mm 0,0 UV-I 0 W/m 8,3 C 4,1 C 20,9 km/h (4 Bft) 98,00 %
29.10.2016 06:52 8,9 C 96 % 1031,1 hPa 0,0 l/m 12,3 km/h (3 Bft) W-SW 240 0 min 0,000 mm 0,0 UV-I 0 W/m 8,3 C 5,1 C 19,3 km/h (3 Bft) 97,87 %
29.10.2016 06:54 8,9 C 96 % 1031,1 hPa 0,0 l/m 12,6 km/h (3 Bft) SW 236 0 min 0,000 mm 0,0 UV-I 0 W/m 8,3 C 4,9 C 19,3 km/h (3 Bft) 97,87 %
29.10.2016 06:56 8,9 C 96 % 1031,1 hPa 0,0 l/m 10,3 km/h (2 Bft) W-SW 248 0 min 0,000 mm 0,0 UV-I 0 W/m 8,3 C 6,2 C 17,7 km/h (3 Bft) 100,00 %
29.10.2016 06:58 8,9 C 96 % 1031,1 hPa 0,0 l/m 12,4 km/h (3 Bft) SW 226 0 min 0,000 mm 0,0 UV-I 0 W/m 8,3 C 5,0 C 17,7 km/h (3 Bft) 100,00 %
29.10.2016 07:00 8,9 C 96 % 1031,0 hPa 0,0 l/m 13,8 km/h (3 Bft) SW 231 0 min 0,000 mm 0,0 UV-I 0 W/m 8,3 C 4,3 C 22,5 km/h (4 Bft) 100,00 %
29.10.2016 07:02 8,9 C 96 % 1031,0 hPa 0,0 l/m 10,3 km/h (2 Bft) W-SW 240 0 min 0,000 mm 0,0 UV-I 0 W/m 8,3 C 6,2 C 14,5 km/h (3 Bft) 100,00 %
29.10.2016 07:04 8,9 C 96 % 1031,1 hPa 0,0 l/m 11,6 km/h (2 Bft) SW 218 0 min 0,000 mm 0,0 UV-I 0 W/m 8,3 C 5,5 C 19,3 km/h (3 Bft) 100,00 %
29.10.2016 07:06 8,9 C 96 % 1031,1 hPa 0,0 l/m 14,2 km/h (3 Bft) W-SW 253 0 min 0,000 mm 0,0 UV-I 0 W/m 8,3 C 4,2 C 20,9 km/h (4 Bft) 100,00 %
29.10.2016 07:08 8,9 C 96 % 1031,0 hPa 0,0 l/m 13,3 km/h (3 Bft) SW 232 0 min 0,000 mm 0,0 UV-I 0 W/m 8,3 C 4,6 C 25,7 km/h (4 Bft) 98,00 %
29.10.2016 07:10 8,9 C 96 % 1031,0 hPa 0,0 l/m 16,8 km/h (3 Bft) W-SW 253 0 min 0,000 mm 0,0 UV-I 0 W/m 8,3 C 3,0 C 22,5 km/h (4 Bft) 95,74 %
29.10.2016 07:12 9,0 C 96 % 1031,1 hPa 0,0 l/m 12,6 km/h (3 Bft) SW 231 0 min 0,000 mm 0,0 UV-I 0 W/m 8,4 C 5,1 C 20,9 km/h (4 Bft) 100,00 %
29.10.2016 07:14 9,0 C 96 % 1031,0 hPa 0,0 l/m 11,7 km/h (2 Bft) SW 216 0 min 0,000 mm 0,0 UV-I 0 W/m 8,4 C 5,5 C 14,5 km/h (3 Bft) 100,00 %
29.10.2016 07:16 8,9 C 96 % 1031,0 hPa 0,0 l/m 14,4 km/h (3 Bft) W-SW 245 0 min 0,000 mm 0,0 UV-I 0 W/m 8,3 C 4,1 C 20,9 km/h (4 Bft) 100,00 %
29.10.2016 07:18 9,0 C 96 % 1031,0 hPa 0,0 l/m 13,7 km/h (3 Bft) S-SW 207 0 min 0,000 mm 0,0 UV-I 0 W/m 8,4 C 4,5 C 20,9 km/h (4 Bft) 98,00 %
29.10.2016 07:20 9,0 C 96 % 1031,0 hPa 0,0 l/m 11,9 km/h (2 Bft) W-SW 257 0 min 0,000 mm 0,0 UV-I 0 W/m 8,4 C 5,4 C 20,9 km/h (4 Bft) 97,14 %
29.10.2016 07:22 9,0 C 96 % 1031,0 hPa 0,0 l/m 12,3 km/h (3 Bft) W-SW 241 0 min 0,000 mm 0,0 UV-I 0 W/m 8,4 C 5,2 C 19,3 km/h (3 Bft) 100,00 %
29.10.2016 07:24 8,9 C 96 % 1030,9 hPa 0,0 l/m 11,5 km/h (2 Bft) W-SW 246 0 min 0,000 mm 0,0 UV-I 0 W/m 8,3 C 5,5 C 17,7 km/h (3 Bft) 100,00 %
29.10.2016 07:26 8,9 C 96 % 1031,0 hPa 0,0 l/m 10,8 km/h (2 Bft) W 279 0 min 0,000 mm 0,0 UV-I 0 W/m 8,3 C 5,9 C 14,5 km/h (3 Bft) 100,00 %
29.10.2016 07:28 8,9 C 96 % 1030,9 hPa 0,0 l/m 10,6 km/h (2 Bft) W 265 0 min 0,000 mm 0,0 UV-I 0 W/m 8,3 C 6,0 C 16,1 km/h (3 Bft) 100,00 %
29.10.2016 07:30 8,9 C 96 % 1030,9 hPa 0,0 l/m 11,3 km/h (2 Bft) SW 223 0 min 0,000 mm 0,0 UV-I 0 W/m 8,3 C 5,6 C 17,7 km/h (3 Bft) 100,00 %
29.10.2016 07:32 8,9 C 96 % 1030,9 hPa 0,0 l/m 10,2 km/h (2 Bft) SW 227 0 min 0,000 mm 0,0 UV-I 3 W/m 8,3 C 6,3 C 14,5 km/h (3 Bft) 100,00 %
29.10.2016 07:34 8,9 C 96 % 1030,9 hPa 0,0 l/m 9,8 km/h (2 Bft) W-SW 237 0 min 0,000 mm 0,0 UV-I 5 W/m 8,3 C 6,5 C 16,1 km/h (3 Bft) 100,00 %
29.10.2016 07:36 8,9 C 96 % 1030,8 hPa 0,0 l/m 11,5 km/h (2 Bft) W-SW 250 0 min 0,000 mm 0,0 UV-I 7 W/m 8,3 C 5,5 C 17,7 km/h (3 Bft) 100,00 %
29.10.2016 07:38 8,9 C 96 % 1030,8 hPa 0,0 l/m 12,9 km/h (3 Bft) SW 236 0 min 0,000 mm 0,0 UV-I 7 W/m 8,3 C 4,8 C 19,3 km/h (3 Bft) 100,00 %
29.10.2016 07:40 8,9 C 96 % 1030,8 hPa 0,0 l/m 10,3 km/h (2 Bft) W-SW 253 0 min 0,000 mm 0,0 UV-I 7 W/m 8,3 C 6,2 C 14,5 km/h (3 Bft) 100,00 %
29.10.2016 07:42 8,9 C 96 % 1030,9 hPa 0,0 l/m 9,0 km/h (2 Bft) W 261 0 min 0,000 mm 0,0 UV-I 5 W/m 8,3 C 7,0 C 12,9 km/h (3 Bft) 100,00 %
29.10.2016 07:44 8,9 C 96 % 1030,9 hPa 0,0 l/m 11,6 km/h (2 Bft) W-SW 250 0 min 0,000 mm 0,0 UV-I 5 W/m 8,3 C 5,5 C 20,9 km/h (4 Bft) 100,00 %
29.10.2016 07:46 8,9 C 96 % 1030,9 hPa 0,0 l/m 11,0 km/h (2 Bft) W 265 0 min 0,000 mm 0,0 UV-I 5 W/m 8,3 C 5,8 C 16,1 km/h (3 Bft) 100,00 %
29.10.2016 07:48 8,9 C 96 % 1030,9 hPa 0,0 l/m 10,5 km/h (2 Bft) W-SW 252 0 min 0,000 mm 0,0 UV-I 5 W/m 8,3 C 6,1 C 14,5 km/h (3 Bft) 100,00 %
29.10.2016 07:50 8,9 C 96 % 1030,9 hPa 0,0 l/m 12,1 km/h (2 Bft) W-SW 250 0 min 0,000 mm 0,0 UV-I 6 W/m 8,3 C 5,2 C 19,3 km/h (3 Bft) 100,00 %
29.10.2016 07:52 8,9 C 96 % 1030,8 hPa 0,0 l/m 10,8 km/h (2 Bft) W-SW 257 0 min 0,000 mm 0,0 UV-I 7 W/m 8,3 C 5,9 C 14,5 km/h (3 Bft) 97,87 %
29.10.2016 07:54 8,9 C 96 % 1030,9 hPa 0,0 l/m 10,3 km/h (2 Bft) W-SW 250 0 min 0,000 mm 0,0 UV-I 7 W/m 8,3 C 6,2 C 14,5 km/h (3 Bft) 100,00 %
29.10.2016 07:56 8,9 C 96 % 1030,9 hPa 0,0 l/m 10,4 km/h (2 Bft) W 269 0 min 0,000 mm 0,0 UV-I 9 W/m 8,3 C 6,1 C 14,5 km/h (3 Bft) 95,74 %
29.10.2016 07:58 8,9 C 96 % 1030,9 hPa 0,0 l/m 9,6 km/h (2 Bft) W-SW 249 0 min 0,000 mm 0,0 UV-I 10 W/m 8,3 C 6,6 C 16,1 km/h (3 Bft) 97,87 %
29.10.2016 08:00 8,9 C 96 % 1030,9 hPa 0,0 l/m 12,3 km/h (3 Bft) W-SW 253 0 min 0,000 mm 0,0 UV-I 10 W/m 8,3 C 5,1 C 19,3 km/h (3 Bft) 100,00 %
29.10.2016 08:02 8,9 C 96 % 1031,0 hPa 0,0 l/m 11,6 km/h (2 Bft) W-SW 247 0 min 0,000 mm 0,0 UV-I 10 W/m 8,3 C 5,5 C 16,1 km/h (3 Bft) 100,00 %
29.10.2016 08:04 8,9 C 96 % 1031,1 hPa 0,0 l/m 13,3 km/h (3 Bft) W 263 0 min 0,000 mm 0,0 UV-I 11 W/m 8,3 C 4,6 C 17,7 km/h (3 Bft) 100,00 %
29.10.2016 08:06 8,9 C 96 % 1031,1 hPa 0,0 l/m 13,9 km/h (3 Bft) W-SW 257 0 min 0,000 mm 0,0 UV-I 11 W/m 8,3 C 4,3 C 19,3 km/h (3 Bft) 100,00 %
29.10.2016 08:08 8,9 C 96 % 1031,1 hPa 0,0 l/m 12,4 km/h (3 Bft) W 265 0 min 0,000 mm 0,0 UV-I 11 W/m 8,3 C 5,0 C 19,3 km/h (3 Bft) 100,00 %
29.10.2016 08:10 8,9 C 96 % 1031,1 hPa 0,0 l/m 12,2 km/h (2 Bft) W-SW 258 0 min 0,000 mm 0,0 UV-I 11 W/m 8,3 C 5,1 C 17,7 km/h (3 Bft) 100,00 %
29.10.2016 08:12 8,9 C 96 % 1031,2 hPa 0,0 l/m 9,4 km/h (2 Bft) W-SW 254 0 min 0,000 mm 0,0 UV-I 11 W/m 8,3 C 6,8 C 14,5 km/h (3 Bft) 100,00 %
29.10.2016 08:14 8,9 C 96 % 1031,2 hPa 0,0 l/m 13,2 km/h (3 Bft) W 263 0 min 0,000 mm 0,0 UV-I 11 W/m 8,3 C 4,6 C 19,3 km/h (3 Bft) 95,83 %
29.10.2016 08:16 8,9 C 96 % 1031,3 hPa 0,0 l/m 13,0 km/h (3 Bft) W 265 0 min 0,000 mm 0,0 UV-I 12 W/m 8,3 C 4,7 C 16,1 km/h (3 Bft) 97,87 %
29.10.2016 08:18 9,0 C 96 % 1031,2 hPa 0,0 l/m 9,2 km/h (2 Bft) W 270 0 min 0,000 mm 0,0 UV-I 11 W/m 8,4 C 7,0 C 16,1 km/h (3 Bft) 97,87 %
29.10.2016 08:20 9,0 C 96 % 1031,3 hPa 0,0 l/m 10,2 km/h (2 Bft) W-SW 257 0 min 0,000 mm 0,0 UV-I 12 W/m 8,4 C 6,4 C 14,5 km/h (3 Bft) 97,87 %
29.10.2016 08:22 9,0 C 96 % 1031,3 hPa 0,0 l/m 8,9 km/h (2 Bft) W-SW 242 0 min 0,000 mm 0,0 UV-I 12 W/m 8,4 C 7,2 C 14,5 km/h (3 Bft) 97,87 %
29.10.2016 08:24 9,0 C 96 % 1031,4 hPa 0,0 l/m 9,5 km/h (2 Bft) W-SW 253 0 min 0,000 mm 0,0 UV-I 12 W/m 8,4 C 6,8 C 14,5 km/h (3 Bft) 95,74 %
29.10.2016 08:26 9,0 C 96 % 1031,4 hPa 0,0 l/m 8,3 km/h (2 Bft) W-SW 246 0 min 0,000 mm 0,0 UV-I 14 W/m 8,4 C 7,6 C 12,9 km/h (3 Bft) 97,87 %
29.10.2016 08:28 9,0 C 96 % 1031,4 hPa 0,0 l/m 9,2 km/h (2 Bft) W-NW 283 0 min 0,000 mm 0,0 UV-I 14 W/m 8,4 C 7,0 C 14,5 km/h (3 Bft) 97,87 %
29.10.2016 08:30 9,0 C 96 % 1031,4 hPa 0,0 l/m 10,0 km/h (2 Bft) W-SW 257 0 min 0,000 mm 0,0 UV-I 14 W/m 8,4 C 6,5 C 14,5 km/h (3 Bft) 97,87 %
29.10.2016 08:32 9,0 C 96 % 1031,4 hPa 0,0 l/m 9,2 km/h (2 Bft) W-SW 241 0 min 0,000 mm 0,0 UV-I 14 W/m 8,4 C 7,0 C 14,5 km/h (3 Bft) 98,00 %
29.10.2016 08:34 9,0 C 96 % 1031,4 hPa 0,0 l/m 9,4 km/h (2 Bft) W-SW 257 0 min 0,000 mm 0,0 UV-I 14 W/m 8,4 C 6,9 C 12,9 km/h (3 Bft) 97,87 %
29.10.2016 08:36 9,0 C 96 % 1031,4 hPa 0,0 l/m 7,0 km/h (2 Bft) W 277 0 min 0,000 mm 0,0 UV-I 16 W/m 8,4 C 8,5 C 12,9 km/h (3 Bft) 95,74 %
29.10.2016 08:38 9,0 C 96 % 1031,4 hPa 0,0 l/m 9,1 km/h (2 Bft) W-SW 252 0 min 0,000 mm 0,0 UV-I 19 W/m 8,4 C 7,1 C 14,5 km/h (3 Bft) 93,62 %
29.10.2016 08:40 9,0 C 96 % 1031,4 hPa 0,0 l/m 9,0 km/h (2 Bft) W-SW 246 0 min 0,000 mm 0,0 UV-I 21 W/m 8,4 C 7,1 C 16,1 km/h (3 Bft) 95,74 %
29.10.2016 08:42 9,0 C 96 % 1031,3 hPa 0,0 l/m 8,4 km/h (2 Bft) W-SW 248 0 min 0,000 mm 0,0 UV-I 21 W/m 8,4 C 7,5 C 12,9 km/h (3 Bft) 98,00 %
29.10.2016 08:44 9,0 C 96 % 1031,4 hPa 0,0 l/m 9,4 km/h (2 Bft) W-SW 258 0 min 0,000 mm 0,0 UV-I 21 W/m 8,4 C 6,9 C 14,5 km/h (3 Bft) 97,37 %
29.10.2016 08:46 9,0 C 96 % 1031,4 hPa 0,0 l/m 9,6 km/h (2 Bft) W-SW 240 0 min 0,000 mm 0,0 UV-I 21 W/m 8,4 C 6,7 C 14,5 km/h (3 Bft) 97,87 %
29.10.2016 08:48 9,0 C 96 % 1031,5 hPa 0,0 l/m 7,3 km/h (2 Bft) W-SW 258 0 min 0,000 mm 0,0 UV-I 21 W/m 8,4 C 8,3 C 11,3 km/h (2 Bft) 96,00 %
29.10.2016 08:50 9,0 C 96 % 1031,4 hPa 0,0 l/m 7,1 km/h (2 Bft) W 259 0 min 0,000 mm 0,0 UV-I 21 W/m 8,4 C 8,5 C 11,3 km/h (2 Bft) 100,00 %
29.10.2016 08:52 9,0 C 96 % 1031,4 hPa 0,0 l/m 8,1 km/h (2 Bft) W-SW 257 0 min 0,000 mm 0,0 UV-I 24 W/m 8,4 C 7,7 C 14,5 km/h (3 Bft) 100,00 %
29.10.2016 08:54 9,0 C 97 % 1031,4 hPa 0,0 l/m 7,9 km/h (2 Bft) W-SW 257 0 min 0,000 mm 0,0 UV-I 26 W/m 8,5 C 7,9 C 12,9 km/h (3 Bft) 97,87 %
29.10.2016 08:56 8,9 C 97 % 1031,4 hPa 0,0 l/m 10,6 km/h (2 Bft) W-SW 250 0 min 0,000 mm 0,0 UV-I 27 W/m 8,4 C 6,0 C 14,5 km/h (3 Bft) 100,00 %
29.10.2016 08:58 9,0 C 97 % 1031,3 hPa 0,0 l/m 9,7 km/h (2 Bft) W-SW 244 0 min 0,000 mm 0,0 UV-I 28 W/m 8,5 C 6,7 C 14,5 km/h (3 Bft) 100,00 %
29.10.2016 09:00 9,0 C 96 % 1031,3 hPa 0,0 l/m 7,8 km/h (2 Bft) W-SW 250 0 min 0,000 mm 0,0 UV-I 28 W/m 8,4 C 7,9 C 16,1 km/h (3 Bft) 100,00 %
29.10.2016 09:02 8,9 C 96 % 1031,4 hPa 0,0 l/m 8,7 km/h (2 Bft) W 264 0 min 0,000 mm 0,0 UV-I 26 W/m 8,3 C 7,2 C 14,5 km/h (3 Bft) 100,00 %
29.10.2016 09:04 8,9 C 96 % 1031,4 hPa 0,0 l/m 9,0 km/h (2 Bft) W-SW 246 0 min 0,000 mm 0,0 UV-I 30 W/m 8,3 C 7,0 C 12,9 km/h (3 Bft) 95,74 %
29.10.2016 09:06 8,9 C 96 % 1031,4 hPa 0,0 l/m 8,5 km/h (2 Bft) W-SW 252 0 min 0,000 mm 0,0 UV-I 31 W/m 8,3 C 7,3 C 14,5 km/h (3 Bft) 100,00 %
29.10.2016 09:08 8,9 C 97 % 1031,4 hPa 0,0 l/m 9,4 km/h (2 Bft) W-SW 257 0 min 0,000 mm 0,0 UV-I 31 W/m 8,4 C 6,8 C 12,9 km/h (3 Bft) 100,00 %
29.10.2016 09:10 9,0 C 97 % 1031,4 hPa 0,0 l/m 8,8 km/h (2 Bft) W-SW 249 0 min 0,000 mm 0,0 UV-I 34 W/m 8,5 C 7,3 C 11,3 km/h (2 Bft) 100,00 %
29.10.2016 09:12 9,0 C 97 % 1031,4 hPa 0,0 l/m 7,6 km/h (2 Bft) W-SW 252 0 min 0,000 mm 0,0 UV-I 36 W/m 8,5 C 8,1 C 12,9 km/h (3 Bft) 100,00 %
29.10.2016 09:14 8,9 C 97 % 1031,4 hPa 0,0 l/m 6,6 km/h (2 Bft) W-SW 254 0 min 0,000 mm 0,0 UV-I 34 W/m 8,4 C 8,8 C 12,9 km/h (3 Bft) 100,00 %
29.10.2016 09:16 8,9 C 97 % 1031,4 hPa 0,0 l/m 7,0 km/h (2 Bft) W-SW 240 0 min 0,000 mm 0,0 UV-I 32 W/m 8,4 C 8,4 C 11,3 km/h (2 Bft) 100,00 %
29.10.2016 09:18 9,0 C 97 % 1031,4 hPa 0,0 l/m 7,3 km/h (2 Bft) W-SW 242 0 min 0,000 mm 0,0 UV-I 34 W/m 8,5 C 8,3 C 11,3 km/h (2 Bft) 100,00 %
29.10.2016 09:20 9,0 C 97 % 1031,4 hPa 0,0 l/m 6,8 km/h (2 Bft) W 259 0 min 0,000 mm 0,0 UV-I 28 W/m 8,5 C 8,7 C 11,3 km/h (2 Bft) 95,74 %
29.10.2016 09:22 8,9 C 97 % 1031,5 hPa 0,0 l/m 7,9 km/h (2 Bft) W-SW 254 0 min 0,000 mm 0,0 UV-I 28 W/m 8,4 C 7,8 C 12,9 km/h (3 Bft) 100,00 %
29.10.2016 09:24 8,9 C 97 % 1031,5 hPa 0,0 l/m 6,8 km/h (2 Bft) W-SW 240 0 min 0,000 mm 0,0 UV-I 29 W/m 8,4 C 8,6 C 12,9 km/h (3 Bft) 98,00 %
29.10.2016 09:26 8,9 C 97 % 1031,5 hPa 0,0 l/m 6,7 km/h (2 Bft) W-SW 257 0 min 0,000 mm 0,0 UV-I 27 W/m 8,4 C 8,7 C 11,3 km/h (2 Bft) 97,92 %
29.10.2016 09:28 8,9 C 97 % 1031,5 hPa 0,0 l/m 5,4 km/h (1 Bft) SW 231 0 min 0,000 mm 0,0 UV-I 26 W/m 8,4 C 8,9 C 9,7 km/h (2 Bft) 100,00 %
29.10.2016 09:30 8,9 C 97 % 1031,5 hPa 0,0 l/m 7,2 km/h (2 Bft) W-SW 248 0 min 0,000 mm 0,0 UV-I 30 W/m 8,4 C 8,3 C 11,3 km/h (2 Bft) 97,87 %
29.10.2016 09:32 8,9 C 97 % 1031,5 hPa 0,0 l/m 7,4 km/h (2 Bft) W-SW 255 0 min 0,000 mm 0,0 UV-I 32 W/m 8,4 C 8,1 C 9,7 km/h (2 Bft) 100,00 %
29.10.2016 09:34 8,9 C 97 % 1031,5 hPa 0,0 l/m 5,3 km/h (1 Bft) W-SW 240 0 min 0,000 mm 0,0 UV-I 33 W/m 8,4 C 8,9 C 9,7 km/h (2 Bft) 100,00 %
29.10.2016 09:36 9,0 C 97 % 1031,5 hPa 0,2 l/m 7,2 km/h (2 Bft) W 264 0 min 0,000 mm 0,0 UV-I 35 W/m 8,5 C 8,4 C 11,3 km/h (2 Bft) 100,00 %
29.10.2016 09:38 9,0 C 97 % 1031,5 hPa 0,0 l/m 4,7 km/h (1 Bft) SW 230 0 min 0,000 mm 0,0 UV-I 40 W/m 8,5 C 9,0 C 8,0 km/h (2 Bft) 100,00 %
29.10.2016 09:40 9,0 C 97 % 1031,5 hPa 0,0 l/m 5,2 km/h (1 Bft) W-SW 248 0 min 0,000 mm 0,0 UV-I 45 W/m 8,5 C 9,0 C 6,4 km/h (2 Bft) 100,00 %
29.10.2016 09:42 9,0 C 97 % 1031,5 hPa 0,0 l/m 6,2 km/h (2 Bft) W 262 0 min 0,000 mm 0,0 UV-I 45 W/m 8,5 C 9,0 C 11,3 km/h (2 Bft) 100,00 %
29.10.2016 09:44 9,1 C 97 % 1031,5 hPa 0,0 l/m 7,7 km/h (2 Bft) SW 214 0 min 0,000 mm 0,0 UV-I 47 W/m 8,6 C 8,1 C 14,5 km/h (3 Bft) 100,00 %
29.10.2016 09:46 9,1 C 97 % 1031,5 hPa 0,0 l/m 6,9 km/h (2 Bft) SW 234 0 min 0,000 mm 0,0 UV-I 46 W/m 8,6 C 8,7 C 11,3 km/h (2 Bft) 100,00 %
29.10.2016 09:48 9,1 C 97 % 1031,6 hPa 0,0 l/m 6,1 km/h (2 Bft) SW 227 0 min 0,000 mm 0,0 UV-I 46 W/m 8,6 C 9,1 C 11,3 km/h (2 Bft) 100,00 %
29.10.2016 09:50 9,1 C 97 % 1031,6 hPa 0,0 l/m 5,7 km/h (1 Bft) S-SW 212 0 min 0,000 mm 0,0 UV-I 43 W/m 8,6 C 9,1 C 9,7 km/h (2 Bft) 100,00 %
29.10.2016 09:52 9,1 C 97 % 1031,6 hPa 0,0 l/m 6,8 km/h (2 Bft) W 260 0 min 0,000 mm 0,0 UV-I 39 W/m 8,6 C 8,8 C 11,3 km/h (2 Bft) 100,00 %
29.10.2016 09:54 9,1 C 97 % 1031,6 hPa 0,0 l/m 6,5 km/h (2 Bft) W-SW 244 0 min 0,000 mm 0,0 UV-I 37 W/m 8,6 C 9,1 C 11,3 km/h (2 Bft) 100,00 %
29.10.2016 09:56 9,1 C 97 % 1031,6 hPa 0,0 l/m 7,7 km/h (2 Bft) SW 231 0 min 0,000 mm 0,0 UV-I 37 W/m 8,6 C 8,1 C 11,3 km/h (2 Bft) 95,74 %
29.10.2016 09:58 9,1 C 97 % 1031,6 hPa 0,0 l/m 6,5 km/h (2 Bft) W-SW 248 0 min 0,000 mm 0,0 UV-I 35 W/m 8,6 C 9,1 C 12,9 km/h (3 Bft) 100,00 %
29.10.2016 10:00 9,1 C 97 % 1031,6 hPa 0,0 l/m 6,5 km/h (2 Bft) W-SW 252 0 min 0,025 mm 0,0 UV-I 40 W/m 8,6 C 9,1 C 12,9 km/h (3 Bft) 97,87 %
29.10.2016 10:02 9,1 C 97 % 1031,5 hPa 0,0 l/m 6,6 km/h (2 Bft) W-SW 241 0 min 0,000 mm 0,0 UV-I 40 W/m 8,6 C 9,0 C 11,3 km/h (2 Bft) 100,00 %
29.10.2016 10:04 9,1 C 97 % 1031,6 hPa 0,0 l/m 6,7 km/h (2 Bft) W 279 0 min 0,000 mm 0,0 UV-I 42 W/m 8,6 C 8,9 C 11,3 km/h (2 Bft) 98,00 %
29.10.2016 10:06 9,1 C 97 % 1031,5 hPa 0,0 l/m 6,6 km/h (2 Bft) W-SW 242 0 min 0,000 mm 0,0 UV-I 39 W/m 8,6 C 9,0 C 11,3 km/h (2 Bft) 100,00 %
29.10.2016 10:08 9,1 C 97 % 1031,5 hPa 0,0 l/m 6,8 km/h (2 Bft) W-SW 248 0 min 0,000 mm 0,0 UV-I 41 W/m 8,6 C 8,8 C 11,3 km/h (2 Bft) 100,00 %
29.10.2016 10:10 9,1 C 97 % 1031,5 hPa 0,0 l/m 9,1 km/h (2 Bft) S-SW 211 0 min 0,000 mm 0,0 UV-I 47 W/m 8,6 C 7,2 C 14,5 km/h (3 Bft) 98,00 %
29.10.2016 10:12 9,1 C 97 % 1031,5 hPa 0,0 l/m 8,2 km/h (2 Bft) SW 231 0 min 0,000 mm 0,0 UV-I 51 W/m 8,6 C 7,8 C 12,9 km/h (3 Bft) 97,87 %
29.10.2016 10:14 9,1 C 97 % 1031,5 hPa 0,0 l/m 6,6 km/h (2 Bft) W-SW 242 0 min 0,000 mm 0,0 UV-I 56 W/m 8,6 C 9,0 C 12,9 km/h (3 Bft) 100,00 %
29.10.2016 10:16 9,2 C 98 % 1031,6 hPa 0,0 l/m 6,8 km/h (2 Bft) SW 229 0 min 0,000 mm 0,0 UV-I 56 W/m 8,9 C 8,9 C 11,3 km/h (2 Bft) 95,74 %
29.10.2016 10:18 9,2 C 97 % 1031,5 hPa 0,0 l/m 9,4 km/h (2 Bft) W-SW 237 0 min 0,000 mm 0,0 UV-I 51 W/m 8,7 C 7,1 C 14,5 km/h (3 Bft) 94,44 %
29.10.2016 10:20 9,2 C 97 % 1031,6 hPa 0,0 l/m 7,3 km/h (2 Bft) W-SW 240 0 min 0,000 mm 0,0 UV-I 52 W/m 8,7 C 8,5 C 12,9 km/h (3 Bft) 98,00 %
29.10.2016 10:22 9,2 C 97 % 1031,5 hPa 0,2 l/m 10,5 km/h (2 Bft) W-SW 244 0 min 0,000 mm 0,0 UV-I 55 W/m 8,7 C 6,4 C 14,5 km/h (3 Bft) 95,74 %
29.10.2016 10:24 9,2 C 97 % 1031,5 hPa 0,0 l/m 14,3 km/h (3 Bft) W-SW 252 0 min 0,000 mm 0,0 UV-I 53 W/m 8,7 C 4,5 C 17,7 km/h (3 Bft) 93,62 %
29.10.2016 10:26 9,2 C 97 % 1031,5 hPa 0,0 l/m 9,3 km/h (2 Bft) W-SW 248 0 min 0,000 mm 0,0 UV-I 51 W/m 8,7 C 7,1 C 16,1 km/h (3 Bft) 98,00 %
29.10.2016 10:29 9,2 C 97 % 1031,4 hPa 0,0 l/m 12,9 km/h (3 Bft) W-SW 239 0 min 0,000 mm 0,0 UV-I 55 W/m 8,7 C 5,1 C 20,9 km/h (4 Bft) 98,57 %
29.10.2016 10:30 9,2 C 97 % 1031,4 hPa 0,0 l/m 13,2 km/h (3 Bft) W 265 0 min 0,000 mm 0,0 UV-I 69 W/m 8,7 C 5,0 C 19,3 km/h (3 Bft) 91,67 %
29.10.2016 10:32 9,2 C 97 % 1031,3 hPa 0,0 l/m 9,4 km/h (2 Bft) W-SW 240 0 min 0,000 mm 0,0 UV-I 84 W/m 8,7 C 7,1 C 14,5 km/h (3 Bft) 97,92 %
29.10.2016 10:34 9,3 C 97 % 1031,4 hPa 0,0 l/m 8,6 km/h (2 Bft) W-SW 239 0 min 0,000 mm 0,0 UV-I 102 W/m 8,8 C 7,7 C 12,9 km/h (3 Bft) 98,00 %
29.10.2016 10:36 9,3 C 97 % 1031,3 hPa 0,0 l/m 8,9 km/h (2 Bft) W-SW 247 0 min 0,000 mm 0,0 UV-I 105 W/m 8,8 C 7,5 C 17,7 km/h (3 Bft) 97,14 %
29.10.2016 10:38 9,4 C 97 % 1031,3 hPa 0,0 l/m 9,5 km/h (2 Bft) S-SW 206 0 min 0,000 mm 0,0 UV-I 96 W/m 8,9 C 7,2 C 14,5 km/h (3 Bft) 97,87 %
29.10.2016 10:40 9,4 C 97 % 1031,3 hPa 0,0 l/m 7,8 km/h (2 Bft) S-SW 203 0 min 0,000 mm 0,0 UV-I 101 W/m 8,9 C 8,4 C 12,9 km/h (3 Bft) 97,87 %
29.10.2016 10:42 9,4 C 97 % 1031,4 hPa 0,0 l/m 9,4 km/h (2 Bft) SW 220 0 min 0,000 mm 0,2 UV-I 100 W/m 8,9 C 7,3 C 16,1 km/h (3 Bft) 95,74 %
29.10.2016 10:44 9,4 C 97 % 1031,3 hPa 0,0 l/m 8,6 km/h (2 Bft) W-SW 242 0 min 0,000 mm 0,5 UV-I 108 W/m 8,9 C 7,8 C 14,5 km/h (3 Bft) 93,62 %
29.10.2016 10:46 9,5 C 97 % 1031,3 hPa 0,0 l/m 7,0 km/h (2 Bft) SW 232 0 min 0,000 mm 0,5 UV-I 115 W/m 9,0 C 9,1 C 12,9 km/h (3 Bft) 97,87 %
29.10.2016 10:48 9,5 C 97 % 1031,3 hPa 0,0 l/m 10,4 km/h (2 Bft) SW 233 0 min 0,000 mm 0,5 UV-I 111 W/m 9,0 C 6,8 C 14,5 km/h (3 Bft) 98,00 %
29.10.2016 10:50 9,5 C 97 % 1031,3 hPa 0,0 l/m 6,4 km/h (2 Bft) W-SW 239 0 min 0,000 mm 0,2 UV-I 100 W/m 9,0 C 9,5 C 12,9 km/h (3 Bft) 95,83 %
29.10.2016 10:52 9,6 C 97 % 1031,2 hPa 0,0 l/m 8,4 km/h (2 Bft) SW 232 0 min 0,000 mm 0,0 UV-I 91 W/m 9,1 C 8,2 C 16,1 km/h (3 Bft) 100,00 %
29.10.2016 10:54 9,6 C 97 % 1031,2 hPa 0,0 l/m 7,9 km/h (2 Bft) SW 224 0 min 0,000 mm 0,0 UV-I 98 W/m 9,1 C 8,5 C 12,9 km/h (3 Bft) 98,00 %
29.10.2016 10:56 9,6 C 97 % 1031,2 hPa 0,0 l/m 6,5 km/h (2 Bft) W 273 0 min 0,000 mm 0,5 UV-I 112 W/m 9,1 C 9,6 C 11,3 km/h (2 Bft) 100,00 %
29.10.2016 10:58 9,7 C 97 % 1031,1 hPa 0,0 l/m 6,5 km/h (2 Bft) SW 219 0 min 0,000 mm 0,5 UV-I 119 W/m 9,2 C 9,7 C 11,3 km/h (2 Bft) 100,00 %
29.10.2016 11:00 9,7 C 97 % 1031,1 hPa 0,0 l/m 10,7 km/h (2 Bft) W-SW 248 0 min 0,026 mm 0,5 UV-I 116 W/m 9,2 C 6,9 C 16,1 km/h (3 Bft) 100,00 %
29.10.2016 11:02 9,7 C 97 % 1031,1 hPa 0,0 l/m 9,9 km/h (2 Bft) SW 216 0 min 0,000 mm 0,0 UV-I 99 W/m 9,2 C 7,3 C 12,9 km/h (3 Bft) 97,87 %
29.10.2016 11:04 9,8 C 97 % 1031,1 hPa 0,0 l/m 9,6 km/h (2 Bft) W-SW 242 0 min 0,000 mm 0,1 UV-I 95 W/m 9,3 C 7,6 C 14,5 km/h (3 Bft) 97,87 %
29.10.2016 11:06 9,8 C 97 % 1031,1 hPa 0,0 l/m 7,5 km/h (2 Bft) W-SW 257 0 min 0,000 mm 0,5 UV-I 99 W/m 9,3 C 9,0 C 14,5 km/h (3 Bft) 100,00 %
29.10.2016 11:08 9,8 C 96 % 1031,1 hPa 0,0 l/m 10,0 km/h (2 Bft) W-SW 249 0 min 0,000 mm 0,3 UV-I 93 W/m 9,2 C 7,4 C 16,1 km/h (3 Bft) 100,00 %
29.10.2016 11:10 9,8 C 96 % 1031,1 hPa 0,0 l/m 10,5 km/h (2 Bft) SW 234 0 min 0,000 mm 0,1 UV-I 87 W/m 9,2 C 7,1 C 14,5 km/h (3 Bft) 98,11 %
29.10.2016 11:12 9,9 C 96 % 1031,1 hPa 0,0 l/m 7,9 km/h (2 Bft) W-SW 248 0 min 0,000 mm 0,1 UV-I 88 W/m 9,3 C 8,8 C 14,5 km/h (3 Bft) 97,87 %
29.10.2016 11:14 9,9 C 96 % 1031,0 hPa 0,0 l/m 9,7 km/h (2 Bft) W-SW 255 0 min 0,000 mm 0,0 UV-I 80 W/m 9,3 C 7,7 C 17,7 km/h (3 Bft) 100,00 %
29.10.2016 11:16 9,9 C 96 % 1031,1 hPa 0,0 l/m 10,0 km/h (2 Bft) W-SW 247 0 min 0,000 mm 0,0 UV-I 82 W/m 9,3 C 7,5 C 17,7 km/h (3 Bft) 100,00 %
29.10.2016 11:18 9,9 C 96 % 1031,1 hPa 0,0 l/m 12,3 km/h (3 Bft) SW 229 0 min 0,000 mm 0,0 UV-I 68 W/m 9,3 C 6,2 C 19,3 km/h (3 Bft) 97,87 %
29.10.2016 11:20 9,9 C 95 % 1031,1 hPa 0,0 l/m 13,8 km/h (3 Bft) SW 233 0 min 0,000 mm 0,0 UV-I 66 W/m 9,1 C 5,5 C 25,7 km/h (4 Bft) 100,00 %
29.10.2016 11:22 9,9 C 95 % 1031,1 hPa 0,0 l/m 10,4 km/h (2 Bft) W-SW 247 0 min 0,000 mm 0,0 UV-I 69 W/m 9,1 C 7,3 C 14,5 km/h (3 Bft) 100,00 %
29.10.2016 11:24 9,9 C 95 % 1031,0 hPa 0,0 l/m 11,3 km/h (2 Bft) W-SW 247 0 min 0,000 mm 0,0 UV-I 76 W/m 9,1 C 6,8 C 17,7 km/h (3 Bft) 100,00 %
29.10.2016 11:26 9,9 C 95 % 1031,0 hPa 0,0 l/m 14,3 km/h (3 Bft) W-SW 246 0 min 0,000 mm 0,0 UV-I 86 W/m 9,1 C 5,3 C 17,7 km/h (3 Bft) 95,83 %
29.10.2016 11:32 9,9 C 95 % 1031,0 hPa 0,0 l/m 12,8 km/h (3 Bft) W-SW 241 0 min 0,000 mm 0,0 UV-I 55 W/m 9,1 C 6,0 C 17,7 km/h (3 Bft) 100,00 %
29.10.2016 11:34 9,9 C 95 % 1030,9 hPa 0,0 l/m 10,1 km/h (2 Bft) W-SW 257 0 min 0,000 mm 0,0 UV-I 54 W/m 9,1 C 7,4 C 12,9 km/h (3 Bft) 100,00 %
29.10.2016 11:36 9,9 C 95 % 1030,9 hPa 0,0 l/m 8,6 km/h (2 Bft) W-SW 257 0 min 0,000 mm 0,0 UV-I 61 W/m 9,1 C 8,3 C 16,1 km/h (3 Bft) 100,00 %
29.10.2016 11:38 9,9 C 95 % 1030,9 hPa 0,0 l/m 8,2 km/h (2 Bft) W 267 0 min 0,000 mm 0,0 UV-I 68 W/m 9,1 C 8,6 C 12,9 km/h (3 Bft) 100,00 %
29.10.2016 11:40 9,9 C 95 % 1031,0 hPa 0,0 l/m 8,9 km/h (2 Bft) W-SW 249 0 min 0,000 mm 0,0 UV-I 54 W/m 9,1 C 8,2 C 12,9 km/h (3 Bft) 100,00 %
29.10.2016 11:42 9,9 C 95 % 1031,0 hPa 0,0 l/m 8,0 km/h (2 Bft) W-SW 257 0 min 0,000 mm 0,0 UV-I 52 W/m 9,1 C 8,7 C 16,1 km/h (3 Bft) 100,00 %
29.10.2016 11:44 9,9 C 95 % 1031,0 hPa 0,0 l/m 5,9 km/h (2 Bft) W-SW 252 0 min 0,000 mm 0,0 UV-I 50 W/m 9,1 C 9,9 C 11,3 km/h (2 Bft) 98,00 %
29.10.2016 11:46 9,9 C 95 % 1031,0 hPa 0,0 l/m 7,9 km/h (2 Bft) W-SW 250 0 min 0,000 mm 0,0 UV-I 47 W/m 9,1 C 8,8 C 14,5 km/h (3 Bft) 100,00 %
29.10.2016 11:48 9,9 C 95 % 1031,0 hPa 0,0 l/m 8,3 km/h (2 Bft) W-SW 244 0 min 0,000 mm 0,0 UV-I 52 W/m 9,1 C 8,5 C 14,5 km/h (3 Bft) 100,00 %
29.10.2016 11:50 9,9 C 95 % 1031,0 hPa 0,0 l/m 7,0 km/h (2 Bft) W-SW 250 0 min 0,000 mm 0,0 UV-I 51 W/m 9,1 C 9,5 C 11,3 km/h (2 Bft) 97,56 %
29.10.2016 11:52 9,9 C 95 % 1031,0 hPa 0,0 l/m 6,9 km/h (2 Bft) W-SW 257 0 min 0,000 mm 0,0 UV-I 46 W/m 9,1 C 9,5 C 11,3 km/h (2 Bft) 100,00 %
29.10.2016 11:54 9,9 C 95 % 1031,0 hPa 0,0 l/m 8,7 km/h (2 Bft) W 261 0 min 0,000 mm 0,0 UV-I 49 W/m 9,1 C 8,3 C 12,9 km/h (3 Bft) 100,00 %
29.10.2016 11:56 9,9 C 95 % 1031,0 hPa 0,0 l/m 7,8 km/h (2 Bft) W-SW 255 0 min 0,000 mm 0,0 UV-I 53 W/m 9,1 C 8,9 C 12,9 km/h (3 Bft) 100,00 %
29.10.2016 11:58 9,9 C 95 % 1031,0 hPa 0,0 l/m 5,9 km/h (2 Bft) W 265 0 min 0,000 mm 0,0 UV-I 51 W/m 9,1 C 9,9 C 8,0 km/h (2 Bft) 97,56 %
29.10.2016 12:00 9,9 C 95 % 1031,0 hPa 0,0 l/m 9,2 km/h (2 Bft) W-SW 241 0 min 0,025 mm 0,0 UV-I 61 W/m 9,1 C 8,0 C 12,9 km/h (3 Bft) 100,00 %
29.10.2016 12:02 9,9 C 95 % 1031,0 hPa 0,0 l/m 7,8 km/h (2 Bft) W-SW 257 0 min 0,000 mm 0,0 UV-I 63 W/m 9,1 C 8,9 C 11,3 km/h (2 Bft) 97,37 %
29.10.2016 12:04 9,9 C 95 % 1031,0 hPa 0,0 l/m 10,2 km/h (2 Bft) SW 235 0 min 0,000 mm 0,0 UV-I 63 W/m 9,1 C 7,4 C 16,1 km/h (3 Bft) 100,00 %
29.10.2016 12:06 9,9 C 95 % 1031,0 hPa 0,0 l/m 9,3 km/h (2 Bft) W-SW 246 0 min 0,000 mm 0,0 UV-I 62 W/m 9,1 C 7,9 C 14,5 km/h (3 Bft) 100,00 %
29.10.2016 12:08 9,9 C 95 % 1031,0 hPa 0,0 l/m 9,6 km/h (2 Bft) W-SW 254 0 min 0,000 mm 0,0 UV-I 59 W/m 9,1 C 7,7 C 16,1 km/h (3 Bft) 98,00 %
29.10.2016 12:10 9,9 C 95 % 1031,0 hPa 0,0 l/m 9,7 km/h (2 Bft) W-SW 247 0 min 0,000 mm 0,0 UV-I 63 W/m 9,1 C 7,7 C 16,1 km/h (3 Bft) 100,00 %
29.10.2016 12:15 10,0 C 95 % 1031,0 hPa 0,0 l/m 11,3 km/h (2 Bft) W-SW 247 0 min 0,000 mm 0,0 UV-I 64 W/m 9,2 C 6,9 C 17,7 km/h (3 Bft) 100,00 %
29.10.2016 12:16 10,0 C 95 % 1031,0 hPa 0,0 l/m 11,7 km/h (2 Bft) W-NW 302 0 min 0,000 mm 0,0 UV-I 66 W/m 9,2 C 6,7 C 12,9 km/h (3 Bft) 97,84 %
29.10.2016 12:18 10,0 C 95 % 1031,0 hPa 0,0 l/m 10,5 km/h (2 Bft) W-SW 256 0 min 0,000 mm 0,0 UV-I 60 W/m 9,2 C 7,3 C 22,5 km/h (4 Bft) 97,73 %
29.10.2016 12:20 10,0 C 95 % 1031,0 hPa 0,0 l/m 11,2 km/h (2 Bft) W-SW 242 0 min 0,000 mm 0,0 UV-I 67 W/m 9,2 C 6,9 C 16,1 km/h (3 Bft) 98,11 %
29.10.2016 12:22 10,0 C 95 % 1030,9 hPa 0,0 l/m 13,1 km/h (3 Bft) W 273 0 min 0,000 mm 0,0 UV-I 70 W/m 9,2 C 6,0 C 20,9 km/h (4 Bft) 98,00 %
29.10.2016 12:24 10,1 C 94 % 1030,9 hPa 0,0 l/m 10,9 km/h (2 Bft) W-SW 255 0 min 0,000 mm 0,0 UV-I 68 W/m 9,2 C 7,2 C 16,1 km/h (3 Bft) 95,45 %
29.10.2016 12:26 10,1 C 94 % 1030,9 hPa 0,0 l/m 12,4 km/h (3 Bft) W-SW 248 0 min 0,000 mm 0,3 UV-I 82 W/m 9,2 C 6,4 C 20,9 km/h (4 Bft) 97,87 %
29.10.2016 12:30 10,1 C 94 % 1030,9 hPa 0,0 l/m 13,8 km/h (3 Bft) SW 223 0 min 0,000 mm 0,5 UV-I 86 W/m 9,2 C 5,8 C 16,1 km/h (3 Bft) 100,00 %
29.10.2016 12:32 10,1 C 94 % 1030,8 hPa 0,0 l/m 13,5 km/h (3 Bft) W-SW 253 0 min 0,000 mm 0,5 UV-I 89 W/m 9,2 C 5,9 C 17,7 km/h (3 Bft) 91,30 %
29.10.2016 12:34 10,1 C 94 % 1030,8 hPa 0,0 l/m 12,1 km/h (2 Bft) W 261 0 min 0,000 mm 0,5 UV-I 101 W/m 9,2 C 6,6 C 17,7 km/h (3 Bft) 96,77 %
29.10.2016 12:36 10,1 C 94 % 1030,8 hPa 0,0 l/m 12,5 km/h (3 Bft) W-SW 251 0 min 0,000 mm 0,6 UV-I 110 W/m 9,2 C 6,4 C 19,3 km/h (3 Bft) 96,30 %
29.10.2016 12:38 10,1 C 94 % 1030,7 hPa 0,0 l/m 12,5 km/h (3 Bft) SW 236 0 min 0,000 mm 0,7 UV-I 130 W/m 9,2 C 6,4 C 17,7 km/h (3 Bft) 97,37 %
29.10.2016 12:40 10,1 C 95 % 1030,7 hPa 0,0 l/m 14,3 km/h (3 Bft) W-SW 252 0 min 0,000 mm 0,7 UV-I 138 W/m 9,3 C 5,6 C 19,3 km/h (3 Bft) 95,83 %
29.10.2016 12:42 10,1 C 95 % 1030,7 hPa 0,0 l/m 9,9 km/h (2 Bft) SW 236 0 min 0,000 mm 0,8 UV-I 142 W/m 9,3 C 7,8 C 14,5 km/h (3 Bft) 97,47 %
29.10.2016 12:44 10,1 C 95 % 1030,7 hPa 0,0 l/m 12,9 km/h (3 Bft) W 259 0 min 0,000 mm 0,9 UV-I 154 W/m 9,3 C 6,2 C 24,1 km/h (4 Bft) 97,56 %
29.10.2016 12:46 10,1 C 95 % 1030,7 hPa 0,0 l/m 8,2 km/h (2 Bft) W-SW 238 0 min 0,000 mm 0,8 UV-I 143 W/m 9,3 C 8,8 C 12,9 km/h (3 Bft) 97,92 %
29.10.2016 12:48 10,2 C 95 % 1030,7 hPa 0,0 l/m 8,6 km/h (2 Bft) W-SW 257 0 min 0,000 mm 0,5 UV-I 105 W/m 9,4 C 8,7 C 14,5 km/h (3 Bft) 97,87 %
29.10.2016 12:50 10,1 C 96 % 1030,7 hPa 0,0 l/m 9,1 km/h (2 Bft) W-NW 287 0 min 0,000 mm 0,0 UV-I 78 W/m 9,5 C 8,2 C 16,1 km/h (3 Bft) 98,08 %
29.10.2016 12:52 10,1 C 95 % 1030,6 hPa 0,0 l/m 12,1 km/h (2 Bft) W 259 0 min 0,000 mm 0,2 UV-I 86 W/m 9,3 C 6,6 C 19,3 km/h (3 Bft) 100,00 %
29.10.2016 12:54 10,1 C 96 % 1030,6 hPa 0,0 l/m 11,4 km/h (2 Bft) W 263 0 min 0,000 mm 0,5 UV-I 91 W/m 9,5 C 6,9 C 22,5 km/h (4 Bft) 100,00 %
29.10.2016 12:56 10,1 C 95 % 1030,6 hPa 0,0 l/m 10,7 km/h (2 Bft) W-SW 256 0 min 0,000 mm 0,2 UV-I 73 W/m 9,3 C 7,3 C 20,9 km/h (4 Bft) 94,74 %
29.10.2016 12:58 10,1 C 95 % 1030,5 hPa 0,0 l/m 12,4 km/h (3 Bft) W-NW 283 0 min 0,000 mm 0,0 UV-I 75 W/m 9,3 C 6,4 C 19,3 km/h (3 Bft) 98,11 %
29.10.2016 13:00 10,1 C 95 % 1030,5 hPa 0,0 l/m 7,3 km/h (2 Bft) W-SW 254 0 min 0,051 mm 0,0 UV-I 76 W/m 9,3 C 9,4 C 12,9 km/h (3 Bft) 100,00 %
29.10.2016 13:02 10,1 C 95 % 1030,4 hPa 0,0 l/m 12,0 km/h (2 Bft) SW 234 0 min 0,000 mm 0,1 UV-I 76 W/m 9,3 C 6,6 C 19,3 km/h (3 Bft) 97,87 %
29.10.2016 13:04 10,0 C 95 % 1030,4 hPa 0,0 l/m 12,0 km/h (2 Bft) W-SW 246 0 min 0,000 mm 0,6 UV-I 100 W/m 9,2 C 6,5 C 20,9 km/h (4 Bft) 98,11 %
29.10.2016 13:06 10,0 C 95 % 1030,4 hPa 0,0 l/m 15,2 km/h (3 Bft) W-SW 237 0 min 0,000 mm 0,3 UV-I 81 W/m 9,2 C 5,1 C 22,5 km/h (4 Bft) 97,56 %
29.10.2016 13:08 10,0 C 96 % 1030,3 hPa 0,0 l/m 10,6 km/h (2 Bft) W 279 0 min 0,000 mm 0,5 UV-I 92 W/m 9,4 C 7,3 C 17,7 km/h (3 Bft) 98,00 %
29.10.2016 13:10 10,1 C 96 % 1030,3 hPa 0,0 l/m 12,1 km/h (2 Bft) W-SW 246 0 min 0,000 mm 0,6 UV-I 105 W/m 9,5 C 6,6 C 17,7 km/h (3 Bft) 100,00 %
29.10.2016 13:12 10,0 C 96 % 1030,3 hPa 0,0 l/m 13,3 km/h (3 Bft) W 261 0 min 0,000 mm 0,6 UV-I 104 W/m 9,4 C 5,9 C 20,9 km/h (4 Bft) 98,21 %
29.10.2016 13:14 10,1 C 96 % 1030,3 hPa 0,0 l/m 10,8 km/h (2 Bft) SW 232 0 min 0,000 mm 0,6 UV-I 109 W/m 9,5 C 7,3 C 19,3 km/h (3 Bft) 97,73 %
29.10.2016 13:16 10,1 C 96 % 1030,2 hPa 0,0 l/m 12,3 km/h (3 Bft) W 265 0 min 0,000 mm 0,3 UV-I 88 W/m 9,5 C 6,5 C 20,9 km/h (4 Bft) 100,00 %
29.10.2016 13:18 10,1 C 96 % 1030,2 hPa 0,0 l/m 10,2 km/h (2 Bft) W-SW 257 0 min 0,000 mm 0,0 UV-I 78 W/m 9,5 C 7,6 C 17,7 km/h (3 Bft) 100,00 %
29.10.2016 13:20 10,1 C 96 % 1030,2 hPa 0,0 l/m 9,2 km/h (2 Bft) W 273 0 min 0,000 mm 0,0 UV-I 65 W/m 9,5 C 8,2 C 16,1 km/h (3 Bft) 100,00 %
29.10.2016 13:22 10,1 C 96 % 1030,2 hPa 0,0 l/m 8,5 km/h (2 Bft) NW 309 0 min 0,000 mm 0,0 UV-I 56 W/m 9,5 C 8,6 C 14,5 km/h (3 Bft) 100,00 %
29.10.2016 13:24 10,1 C 96 % 1030,2 hPa 0,0 l/m 9,0 km/h (2 Bft) W-SW 257 0 min 0,000 mm 0,1 UV-I 65 W/m 9,5 C 8,3 C 17,7 km/h (3 Bft) 97,62 %
29.10.2016 13:26 10,1 C 96 % 1030,2 hPa 0,0 l/m 12,3 km/h (3 Bft) W-SW 252 0 min 0,000 mm 0,5 UV-I 94 W/m 9,5 C 6,5 C 19,3 km/h (3 Bft) 100,00 %
29.10.2016 13:29 10,1 C 96 % 1030,1 hPa 0,0 l/m 13,7 km/h (3 Bft) W-SW 248 0 min 0,000 mm 0,7 UV-I 120 W/m 9,5 C 5,8 C 24,1 km/h (4 Bft) 100,00 %
29.10.2016 13:30 10,1 C 96 % 1030,1 hPa 0,0 l/m 10,1 km/h (2 Bft) W-SW 243 0 min 0,000 mm 0,7 UV-I 135 W/m 9,5 C 7,6 C 14,5 km/h (3 Bft) 100,00 %
29.10.2016 13:34 10,2 C 96 % 1030,0 hPa 0,0 l/m 16,0 km/h (3 Bft) W-SW 253 0 min 0,000 mm 0,8 UV-I 140 W/m 9,6 C 5,0 C 20,9 km/h (4 Bft) 100,00 %
29.10.2016 13:36 10,2 C 96 % 1030,1 hPa 0,0 l/m 10,9 km/h (2 Bft) W-SW 244 0 min 0,000 mm 0,6 UV-I 115 W/m 9,6 C 7,3 C 16,1 km/h (3 Bft) 100,00 %
29.10.2016 13:38 10,2 C 96 % 1030,0 hPa 0,0 l/m 13,6 km/h (3 Bft) W-SW 252 0 min 0,000 mm 0,5 UV-I 93 W/m 9,6 C 6,0 C 20,9 km/h (4 Bft) 100,00 %
29.10.2016 13:40 10,3 C 96 % 1030,0 hPa 0,0 l/m 10,8 km/h (2 Bft) W 263 0 min 0,000 mm 0,5 UV-I 95 W/m 9,7 C 7,5 C 12,9 km/h (3 Bft) 100,00 %
29.10.2016 13:42 10,3 C 96 % 1030,0 hPa 0,0 l/m 9,6 km/h (2 Bft) W-SW 240 0 min 0,000 mm 0,0 UV-I 67 W/m 9,7 C 8,2 C 14,5 km/h (3 Bft) 98,11 %
29.10.2016 13:44 10,3 C 96 % 1030,0 hPa 0,0 l/m 11,4 km/h (2 Bft) W-SW 247 0 min 0,000 mm 0,0 UV-I 67 W/m 9,7 C 7,2 C 17,7 km/h (3 Bft) 100,00 %
29.10.2016 13:46 10,3 C 96 % 1030,0 hPa 0,0 l/m 14,1 km/h (3 Bft) W-SW 252 0 min 0,000 mm 0,2 UV-I 76 W/m 9,7 C 5,9 C 19,3 km/h (3 Bft) 100,00 %
29.10.2016 13:49 10,3 C 96 % 1029,9 hPa 0,0 l/m 9,6 km/h (2 Bft) W-SW 237 0 min 0,000 mm 0,0 UV-I 67 W/m 9,7 C 8,2 C 14,5 km/h (3 Bft) 100,00 %
29.10.2016 13:50 10,3 C 96 % 1029,9 hPa 0,0 l/m 12,3 km/h (3 Bft) W 279 0 min 0,000 mm 0,0 UV-I 78 W/m 9,7 C 6,7 C 16,1 km/h (3 Bft) 98,66 %
29.10.2016 13:52 10,3 C 96 % 1029,9 hPa 0,0 l/m 12,6 km/h (3 Bft) W-SW 254 0 min 0,000 mm 0,5 UV-I 85 W/m 9,7 C 6,6 C 17,7 km/h (3 Bft) 100,00 %
29.10.2016 13:54 10,3 C 96 % 1029,9 hPa 0,0 l/m 14,4 km/h (3 Bft) W-SW 243 0 min 0,000 mm 0,2 UV-I 72 W/m 9,7 C 5,8 C 20,9 km/h (4 Bft) 100,00 %
29.10.2016 13:56 10,3 C 96 % 1029,9 hPa 0,0 l/m 11,9 km/h (2 Bft) W-SW 244 0 min 0,000 mm 0,0 UV-I 60 W/m 9,7 C 6,9 C 16,1 km/h (3 Bft) 100,00 %
29.10.2016 13:59 10,3 C 96 % 1029,8 hPa 0,0 l/m 12,6 km/h (3 Bft) W-SW 243 0 min 0,000 mm 0,0 UV-I 63 W/m 9,7 C 6,6 C 22,5 km/h (4 Bft) 100,00 %
29.10.2016 14:00 10,3 C 96 % 1029,8 hPa 0,0 l/m 15,4 km/h (3 Bft) W-SW 239 0 min 0,051 mm 0,0 UV-I 58 W/m 9,7 C 5,3 C 22,5 km/h (4 Bft) 92,86 %
29.10.2016 14:02 10,3 C 95 % 1029,8 hPa 0,0 l/m 15,2 km/h (3 Bft) W 266 0 min 0,000 mm 0,0 UV-I 59 W/m 9,5 C 5,4 C 20,9 km/h (4 Bft) 100,00 %
29.10.2016 14:04 10,3 C 95 % 1029,7 hPa 0,0 l/m 10,9 km/h (2 Bft) W-SW 252 0 min 0,000 mm 0,0 UV-I 49 W/m 9,5 C 7,4 C 17,7 km/h (3 Bft) 100,00 %
29.10.2016 14:06 10,3 C 95 % 1029,7 hPa 0,0 l/m 11,4 km/h (2 Bft) W-SW 256 0 min 0,000 mm 0,0 UV-I 43 W/m 9,5 C 7,2 C 17,7 km/h (3 Bft) 100,00 %
29.10.2016 14:08 10,3 C 95 % 1029,7 hPa 0,0 l/m 10,2 km/h (2 Bft) W 265 0 min 0,000 mm 0,0 UV-I 40 W/m 9,5 C 7,8 C 14,5 km/h (3 Bft) 97,87 %
29.10.2016 14:10 10,3 C 95 % 1029,7 hPa 0,0 l/m 9,0 km/h (2 Bft) SW 223 0 min 0,000 mm 0,0 UV-I 42 W/m 9,5 C 8,5 C 14,5 km/h (3 Bft) 100,00 %
29.10.2016 14:12 10,3 C 95 % 1029,7 hPa 0,0 l/m 13,0 km/h (3 Bft) W-SW 239 0 min 0,000 mm 0,0 UV-I 37 W/m 9,5 C 6,4 C 19,3 km/h (3 Bft) 100,00 %
29.10.2016 14:14 10,3 C 95 % 1029,6 hPa 0,0 l/m 10,5 km/h (2 Bft) SW 232 0 min 0,000 mm 0,0 UV-I 44 W/m 9,5 C 7,6 C 14,5 km/h (3 Bft) 100,00 %
29.10.2016 14:16 10,3 C 95 % 1029,6 hPa 0,0 l/m 15,9 km/h (3 Bft) W 259 0 min 0,000 mm 0,0 UV-I 57 W/m 9,5 C 5,1 C 22,5 km/h (4 Bft) 100,00 %
29.10.2016 14:18 10,3 C 95 % 1029,6 hPa 0,0 l/m 10,8 km/h (2 Bft) SW 236 0 min 0,000 mm 0,0 UV-I 51 W/m 9,5 C 7,5 C 17,7 km/h (3 Bft) 95,12 %
29.10.2016 14:20 10,3 C 95 % 1029,6 hPa 0,0 l/m 9,9 km/h (2 Bft) W 259 0 min 0,000 mm 0,0 UV-I 57 W/m 9,5 C 8,0 C 14,5 km/h (3 Bft) 97,87 %
29.10.2016 14:22 10,4 C 95 % 1029,6 hPa 0,0 l/m 13,2 km/h (3 Bft) SW 235 0 min 0,000 mm 0,0 UV-I 69 W/m 9,6 C 6,4 C 19,3 km/h (3 Bft) 97,87 %
29.10.2016 14:24 10,4 C 95 % 1029,6 hPa 0,0 l/m 12,2 km/h (2 Bft) W 261 0 min 0,000 mm 0,0 UV-I 83 W/m 9,6 C 6,9 C 17,7 km/h (3 Bft) 97,87 %
29.10.2016 14:26 10,4 C 95 % 1029,6 hPa 0,0 l/m 8,9 km/h (2 Bft) W-SW 250 0 min 0,000 mm 0,2 UV-I 86 W/m 9,6 C 8,7 C 12,9 km/h (3 Bft) 95,74 %
29.10.2016 14:28 10,4 C 95 % 1029,5 hPa 0,0 l/m 8,7 km/h (2 Bft) W 263 0 min 0,000 mm 0,0 UV-I 82 W/m 9,6 C 8,8 C 12,9 km/h (3 Bft) 97,73 %
29.10.2016 14:30 10,4 C 95 % 1029,5 hPa 0,0 l/m 9,3 km/h (2 Bft) W-SW 238 0 min 0,000 mm 0,0 UV-I 69 W/m 9,6 C 8,4 C 14,5 km/h (3 Bft) 96,00 %
29.10.2016 14:32 10,4 C 95 % 1029,5 hPa 0,0 l/m 12,0 km/h (2 Bft) W-SW 251 0 min 0,000 mm 0,0 UV-I 54 W/m 9,6 C 7,0 C 20,9 km/h (4 Bft) 97,87 %
29.10.2016 14:34 10,4 C 95 % 1029,5 hPa 0,0 l/m 11,1 km/h (2 Bft) W-SW 254 0 min 0,000 mm 0,0 UV-I 59 W/m 9,6 C 7,4 C 16,1 km/h (3 Bft) 97,56 %
29.10.2016 14:36 10,4 C 95 % 1029,5 hPa 0,0 l/m 8,5 km/h (2 Bft) W-SW 242 0 min 0,000 mm 0,0 UV-I 69 W/m 9,6 C 8,9 C 14,5 km/h (3 Bft) 98,00 %
29.10.2016 14:39 10,5 C 95 % 1029,5 hPa 0,0 l/m 11,5 km/h (2 Bft) W-SW 244 0 min 0,000 mm 0,0 UV-I 63 W/m 9,7 C 7,3 C 17,7 km/h (3 Bft) 97,50 %
29.10.2016 14:40 10,5 C 95 % 1029,4 hPa 0,0 l/m 13,1 km/h (3 Bft) W 280 0 min 0,000 mm 0,0 UV-I 89 W/m 9,7 C 6,6 C 17,7 km/h (3 Bft) 100,00 %
29.10.2016 14:42 10,5 C 94 % 1029,4 hPa 0,0 l/m 10,4 km/h (2 Bft) W-SW 241 0 min 0,000 mm 0,2 UV-I 96 W/m 9,6 C 7,9 C 17,7 km/h (3 Bft) 98,08 %
29.10.2016 14:45 10,6 C 94 % 1029,4 hPa 0,0 l/m 10,6 km/h (2 Bft) SW 221 0 min 0,000 mm 0,0 UV-I 72 W/m 9,7 C 7,9 C 16,1 km/h (3 Bft) 96,23 %
29.10.2016 14:46 10,6 C 94 % 1029,4 hPa 0,0 l/m 10,0 km/h (2 Bft) W-SW 256 0 min 0,000 mm 0,0 UV-I 63 W/m 9,7 C 8,3 C 16,1 km/h (3 Bft) 100,00 %
29.10.2016 14:48 10,6 C 94 % 1029,4 hPa 0,0 l/m 10,8 km/h (2 Bft) W-SW 246 0 min 0,000 mm 0,0 UV-I 59 W/m 9,7 C 7,8 C 14,5 km/h (3 Bft) 97,56 %
29.10.2016 14:50 10,6 C 94 % 1029,4 hPa 0,0 l/m 11,4 km/h (2 Bft) W-SW 249 0 min 0,000 mm 0,0 UV-I 50 W/m 9,7 C 7,5 C 17,7 km/h (3 Bft) 96,92 %
29.10.2016 14:52 10,6 C 94 % 1029,4 hPa 0,0 l/m 9,0 km/h (2 Bft) W-SW 247 0 min 0,000 mm 0,0 UV-I 53 W/m 9,7 C 8,8 C 12,9 km/h (3 Bft) 96,15 %
29.10.2016 14:54 10,6 C 94 % 1029,3 hPa 0,0 l/m 10,0 km/h (2 Bft) W 268 0 min 0,000 mm 0,0 UV-I 45 W/m 9,7 C 8,3 C 17,7 km/h (3 Bft) 100,00 %
29.10.2016 14:56 10,6 C 94 % 1029,4 hPa 0,0 l/m 8,4 km/h (2 Bft) SW 234 0 min 0,000 mm 0,0 UV-I 55 W/m 9,7 C 9,2 C 16,1 km/h (3 Bft) 100,00 %
29.10.2016 14:59 10,6 C 94 % 1029,3 hPa 0,0 l/m 16,1 km/h (3 Bft) W-SW 254 0 min 0,000 mm 0,0 UV-I 61 W/m 9,7 C 5,4 C 17,7 km/h (3 Bft) 98,59 %
29.10.2016 15:00 10,6 C 94 % 1029,3 hPa 0,0 l/m 12,9 km/h (3 Bft) W-SW 247 0 min 0,025 mm 0,0 UV-I 61 W/m 9,7 C 6,8 C 27,4 km/h (4 Bft) 97,37 %
29.10.2016 15:06 10,6 C 93 % 1029,3 hPa 0,0 l/m 12,8 km/h (3 Bft) SW 231 0 min 0,000 mm 0,0 UV-I 56 W/m 9,5 C 6,8 C 19,3 km/h (3 Bft) 98,39 %
29.10.2016 15:09 10,6 C 93 % 1029,3 hPa 0,0 l/m 12,2 km/h (2 Bft) W 265 0 min 0,000 mm 0,0 UV-I 53 W/m 9,5 C 7,1 C 20,9 km/h (4 Bft) 98,46 %
29.10.2016 15:10 10,6 C 93 % 1029,3 hPa 0,0 l/m 12,2 km/h (2 Bft) W 279 0 min 0,000 mm 0,0 UV-I 54 W/m 9,5 C 7,1 C 17,7 km/h (3 Bft) 100,00 %
29.10.2016 15:12 10,5 C 93 % 1029,3 hPa 0,0 l/m 9,7 km/h (2 Bft) W 262 0 min 0,000 mm 0,0 UV-I 52 W/m 9,4 C 8,3 C 14,5 km/h (3 Bft) 100,00 %
29.10.2016 15:14 10,6 C 93 % 1029,3 hPa 0,0 l/m 12,0 km/h (2 Bft) W-SW 250 0 min 0,000 mm 0,0 UV-I 45 W/m 9,5 C 7,2 C 17,7 km/h (3 Bft) 100,00 %
29.10.2016 15:16 10,5 C 93 % 1029,2 hPa 0,0 l/m 10,9 km/h (2 Bft) W-NW 286 0 min 0,000 mm 0,0 UV-I 43 W/m 9,4 C 7,7 C 16,1 km/h (3 Bft) 100,00 %
29.10.2016 15:19 10,5 C 93 % 1029,2 hPa 0,0 l/m 12,9 km/h (3 Bft) W 269 0 min 0,000 mm 0,0 UV-I 41 W/m 9,4 C 6,7 C 20,9 km/h (4 Bft) 98,78 %
29.10.2016 15:20 10,5 C 93 % 1029,2 hPa 0,0 l/m 10,6 km/h (2 Bft) W-NW 292 0 min 0,000 mm 0,0 UV-I 49 W/m 9,4 C 7,8 C 14,5 km/h (3 Bft) 100,00 %
29.10.2016 15:22 10,5 C 93 % 1029,2 hPa 0,0 l/m 10,3 km/h (2 Bft) W-SW 248 0 min 0,000 mm 0,0 UV-I 42 W/m 9,4 C 8,0 C 14,5 km/h (3 Bft) 100,00 %
29.10.2016 15:24 10,5 C 93 % 1029,2 hPa 0,0 l/m 10,1 km/h (2 Bft) W-SW 252 0 min 0,000 mm 0,0 UV-I 43 W/m 9,4 C 8,1 C 12,9 km/h (3 Bft) 100,00 %
29.10.2016 15:26 10,5 C 93 % 1029,2 hPa 0,0 l/m 10,9 km/h (2 Bft) W 273 0 min 0,000 mm 0,0 UV-I 40 W/m 9,4 C 7,7 C 16,1 km/h (3 Bft) 100,00 %
29.10.2016 15:29 10,5 C 93 % 1029,2 hPa 0,0 l/m 10,0 km/h (2 Bft) W 269 0 min 0,000 mm 0,0 UV-I 42 W/m 9,4 C 8,1 C 16,1 km/h (3 Bft) 100,00 %
29.10.2016 15:30 10,5 C 93 % 1029,2 hPa 0,0 l/m 11,4 km/h (2 Bft) W-SW 244 0 min 0,000 mm 0,0 UV-I 48 W/m 9,4 C 7,4 C 16,1 km/h (3 Bft) 100,00 %
29.10.2016 15:32 10,5 C 93 % 1029,1 hPa 0,0 l/m 12,2 km/h (2 Bft) W 264 0 min 0,000 mm 0,0 UV-I 55 W/m 9,4 C 7,0 C 20,9 km/h (4 Bft) 100,00 %
29.10.2016 15:34 10,5 C 93 % 1029,1 hPa 0,0 l/m 12,6 km/h (3 Bft) SW 227 0 min 0,000 mm 0,0 UV-I 65 W/m 9,4 C 6,8 C 20,9 km/h (4 Bft) 100,00 %
29.10.2016 15:36 10,5 C 93 % 1029,1 hPa 0,0 l/m 13,9 km/h (3 Bft) W-SW 252 0 min 0,000 mm 0,0 UV-I 69 W/m 9,4 C 6,2 C 19,3 km/h (3 Bft) 100,00 %
29.10.2016 15:38 10,5 C 93 % 1029,1 hPa 0,0 l/m 12,1 km/h (2 Bft) W 273 0 min 0,000 mm 0,0 UV-I 69 W/m 9,4 C 7,0 C 19,3 km/h (3 Bft) 100,00 %
29.10.2016 15:40 10,5 C 93 % 1029,2 hPa 0,0 l/m 12,7 km/h (3 Bft) W-SW 254 0 min 0,000 mm 0,0 UV-I 74 W/m 9,4 C 6,8 C 17,7 km/h (3 Bft) 100,00 %
29.10.2016 15:42 10,6 C 93 % 1029,2 hPa 0,0 l/m 11,4 km/h (2 Bft) W-SW 254 0 min 0,000 mm 0,0 UV-I 82 W/m 9,5 C 7,5 C 17,7 km/h (3 Bft) 100,00 %
29.10.2016 15:44 10,6 C 93 % 1029,1 hPa 0,0 l/m 12,1 km/h (2 Bft) W-SW 240 0 min 0,000 mm 0,0 UV-I 85 W/m 9,5 C 7,2 C 17,7 km/h (3 Bft) 100,00 %
29.10.2016 15:46 10,6 C 93 % 1029,1 hPa 0,0 l/m 11,3 km/h (2 Bft) W-SW 242 0 min 0,000 mm 0,0 UV-I 84 W/m 9,5 C 7,6 C 16,1 km/h (3 Bft) 100,00 %
29.10.2016 15:48 10,6 C 93 % 1029,2 hPa 0,0 l/m 9,4 km/h (2 Bft) W 273 0 min 0,000 mm 0,0 UV-I 85 W/m 9,5 C 8,6 C 14,5 km/h (3 Bft) 100,00 %
29.10.2016 15:50 10,6 C 93 % 1029,2 hPa 0,0 l/m 9,3 km/h (2 Bft) W 260 0 min 0,000 mm 0,0 UV-I 84 W/m 9,5 C 8,7 C 14,5 km/h (3 Bft) 98,11 %
29.10.2016 15:52 10,6 C 93 % 1029,2 hPa 0,0 l/m 10,9 km/h (2 Bft) W-SW 254 0 min 0,000 mm 0,0 UV-I 79 W/m 9,5 C 7,8 C 17,7 km/h (3 Bft) 97,92 %
29.10.2016 15:54 10,6 C 93 % 1029,2 hPa 0,0 l/m 11,6 km/h (2 Bft) W 279 0 min 0,000 mm 0,0 UV-I 86 W/m 9,5 C 7,4 C 19,3 km/h (3 Bft) 100,00 %
29.10.2016 15:56 10,6 C 93 % 1029,1 hPa 0,0 l/m 15,2 km/h (3 Bft) W-SW 257 0 min 0,000 mm 0,0 UV-I 86 W/m 9,5 C 5,8 C 22,5 km/h (4 Bft) 100,00 %
29.10.2016 15:58 10,7 C 92 % 1029,1 hPa 0,0 l/m 13,5 km/h (3 Bft) W-SW 242 0 min 0,000 mm 0,0 UV-I 86 W/m 9,5 C 6,6 C 19,3 km/h (3 Bft) 100,00 %
29.10.2016 16:00 10,7 C 92 % 1029,2 hPa 0,0 l/m 9,4 km/h (2 Bft) W 274 0 min 0,051 mm 0,0 UV-I 83 W/m 9,5 C 8,7 C 17,7 km/h (3 Bft) 98,21 %
29.10.2016 16:03 10,7 C 92 % 1029,2 hPa 0,0 l/m 9,6 km/h (2 Bft) W-NW 290 0 min 0,000 mm 0,0 UV-I 78 W/m 9,5 C 8,6 C 12,9 km/h (3 Bft) 98,68 %
29.10.2016 16:04 10,7 C 92 % 1029,2 hPa 0,0 l/m 12,4 km/h (3 Bft) W 267 0 min 0,000 mm 0,0 UV-I 70 W/m 9,5 C 7,1 C 16,1 km/h (3 Bft) 100,00 %
29.10.2016 16:06 10,7 C 92 % 1029,1 hPa 0,0 l/m 9,9 km/h (2 Bft) W-NW 285 0 min 0,000 mm 0,0 UV-I 69 W/m 9,5 C 8,4 C 14,5 km/h (3 Bft) 100,00 %
29.10.2016 16:08 10,7 C 92 % 1029,1 hPa 0,0 l/m 10,6 km/h (2 Bft) W-SW 239 0 min 0,000 mm 0,0 UV-I 73 W/m 9,5 C 8,0 C 17,7 km/h (3 Bft) 100,00 %
29.10.2016 16:10 10,7 C 91 % 1029,2 hPa 0,0 l/m 9,3 km/h (2 Bft) W-SW 251 0 min 0,000 mm 0,0 UV-I 76 W/m 9,3 C 8,8 C 14,5 km/h (3 Bft) 100,00 %
29.10.2016 16:12 10,7 C 91 % 1029,1 hPa 0,0 l/m 10,2 km/h (2 Bft) W 273 0 min 0,000 mm 0,0 UV-I 76 W/m 9,3 C 8,3 C 14,5 km/h (3 Bft) 100,00 %
29.10.2016 16:14 10,7 C 91 % 1029,2 hPa 0,0 l/m 10,3 km/h (2 Bft) W 268 0 min 0,000 mm 0,0 UV-I 70 W/m 9,3 C 8,2 C 16,1 km/h (3 Bft) 100,00 %
29.10.2016 16:16 10,8 C 91 % 1029,2 hPa 0,0 l/m 15,3 km/h (3 Bft) W 260 0 min 0,000 mm 0,0 UV-I 71 W/m 9,4 C 6,0 C 20,9 km/h (4 Bft) 95,12 %
29.10.2016 16:18 10,8 C 91 % 1029,1 hPa 0,0 l/m 12,4 km/h (3 Bft) W 267 0 min 0,000 mm 0,0 UV-I 74 W/m 9,4 C 7,2 C 19,3 km/h (3 Bft) 100,00 %
29.10.2016 16:20 10,8 C 90 % 1029,1 hPa 0,0 l/m 11,1 km/h (2 Bft) SW 229 0 min 0,000 mm 0,0 UV-I 64 W/m 9,2 C 7,9 C 17,7 km/h (3 Bft) 98,31 %
29.10.2016 16:22 10,8 C 90 % 1029,1 hPa 0,0 l/m 14,0 km/h (3 Bft) W-SW 247 0 min 0,000 mm 0,0 UV-I 63 W/m 9,2 C 6,5 C 22,5 km/h (4 Bft) 94,29 %
29.10.2016 16:24 10,8 C 90 % 1029,1 hPa 0,0 l/m 11,6 km/h (2 Bft) W 268 0 min 0,000 mm 0,0 UV-I 64 W/m 9,2 C 7,6 C 17,7 km/h (3 Bft) 98,31 %
29.10.2016 16:26 10,8 C 90 % 1029,1 hPa 0,0 l/m 11,8 km/h (2 Bft) W-SW 247 0 min 0,000 mm 0,0 UV-I 66 W/m 9,2 C 7,5 C 19,3 km/h (3 Bft) 97,62 %
29.10.2016 16:28 10,8 C 90 % 1029,0 hPa 0,0 l/m 11,9 km/h (2 Bft) W-SW 246 0 min 0,000 mm 0,0 UV-I 68 W/m 9,2 C 7,5 C 19,3 km/h (3 Bft) 94,00 %
29.10.2016 16:30 10,8 C 90 % 1029,1 hPa 0,0 l/m 11,1 km/h (2 Bft) W-SW 250 0 min 0,000 mm 0,0 UV-I 65 W/m 9,2 C 7,9 C 16,1 km/h (3 Bft) 97,56 %
29.10.2016 16:32 10,8 C 90 % 1029,0 hPa 0,0 l/m 13,0 km/h (3 Bft) W 267 0 min 0,000 mm 0,0 UV-I 58 W/m 9,2 C 7,0 C 24,1 km/h (4 Bft) 96,23 %
29.10.2016 16:34 10,8 C 90 % 1029,0 hPa 0,0 l/m 10,2 km/h (2 Bft) W 265 0 min 0,000 mm 0,0 UV-I 56 W/m 9,2 C 8,4 C 17,7 km/h (3 Bft) 97,62 %
29.10.2016 16:36 10,8 C 90 % 1029,1 hPa 0,0 l/m 11,9 km/h (2 Bft) W-SW 242 0 min 0,000 mm 0,0 UV-I 58 W/m 9,2 C 7,5 C 17,7 km/h (3 Bft) 100,00 %
29.10.2016 16:38 10,8 C 90 % 1029,1 hPa 0,0 l/m 12,4 km/h (3 Bft) W-SW 244 0 min 0,000 mm 0,0 UV-I 59 W/m 9,2 C 7,2 C 22,5 km/h (4 Bft) 97,30 %
29.10.2016 16:40 10,8 C 90 % 1029,1 hPa 0,0 l/m 13,7 km/h (3 Bft) W 271 0 min 0,000 mm 0,0 UV-I 55 W/m 9,2 C 6,7 C 19,3 km/h (3 Bft) 97,56 %
29.10.2016 16:42 10,8 C 89 % 1029,1 hPa 0,0 l/m 15,6 km/h (3 Bft) W-SW 244 0 min 0,000 mm 0,0 UV-I 51 W/m 9,1 C 5,9 C 22,5 km/h (4 Bft) 98,00 %
29.10.2016 16:44 10,8 C 89 % 1029,1 hPa 0,0 l/m 12,0 km/h (2 Bft) W-SW 238 0 min 0,000 mm 0,0 UV-I 49 W/m 9,1 C 7,4 C 20,9 km/h (4 Bft) 95,45 %
29.10.2016 16:46 10,8 C 90 % 1029,1 hPa 0,0 l/m 10,0 km/h (2 Bft) W-SW 246 0 min 0,000 mm 0,0 UV-I 49 W/m 9,2 C 8,5 C 14,5 km/h (3 Bft) 96,00 %
29.10.2016 16:48 10,8 C 90 % 1029,0 hPa 0,0 l/m 11,6 km/h (2 Bft) W-SW 249 0 min 0,000 mm 0,0 UV-I 48 W/m 9,2 C 7,6 C 16,1 km/h (3 Bft) 95,12 %
29.10.2016 16:50 10,8 C 89 % 1029,0 hPa 0,0 l/m 13,4 km/h (3 Bft) W-SW 247 0 min 0,000 mm 0,0 UV-I 45 W/m 9,1 C 6,8 C 19,3 km/h (3 Bft) 98,21 %
29.10.2016 16:52 10,8 C 90 % 1028,9 hPa 0,0 l/m 12,7 km/h (3 Bft) SW 232 0 min 0,000 mm 0,0 UV-I 41 W/m 9,2 C 7,1 C 19,3 km/h (3 Bft) 97,37 %
29.10.2016 16:54 10,8 C 90 % 1028,9 hPa 0,0 l/m 11,4 km/h (2 Bft) SW 226 0 min 0,000 mm 0,0 UV-I 41 W/m 9,2 C 7,7 C 16,1 km/h (3 Bft) 97,87 %
29.10.2016 16:56 10,8 C 90 % 1028,9 hPa 0,0 l/m 12,2 km/h (2 Bft) W-SW 248 0 min 0,000 mm 0,0 UV-I 49 W/m 9,2 C 7,3 C 19,3 km/h (3 Bft) 98,00 %
29.10.2016 16:58 10,8 C 90 % 1028,9 hPa 0,0 l/m 14,6 km/h (3 Bft) W-SW 242 0 min 0,000 mm 0,0 UV-I 49 W/m 9,2 C 6,3 C 20,9 km/h (4 Bft) 97,37 %
29.10.2016 17:00 10,7 C 90 % 1028,9 hPa 0,0 l/m 12,0 km/h (2 Bft) S-SW 198 0 min 0,051 mm 0,0 UV-I 43 W/m 9,1 C 7,3 C 16,1 km/h (3 Bft) 98,21 %
29.10.2016 17:02 10,7 C 90 % 1028,9 hPa 0,0 l/m 9,7 km/h (2 Bft) SW 216 0 min 0,000 mm 0,0 UV-I 42 W/m 9,1 C 8,5 C 17,7 km/h (3 Bft) 100,00 %
29.10.2016 17:04 10,7 C 90 % 1028,9 hPa 0,0 l/m 13,6 km/h (3 Bft) SW 217 0 min 0,000 mm 0,0 UV-I 43 W/m 9,1 C 6,6 C 20,9 km/h (4 Bft) 98,51 %
29.10.2016 17:06 10,7 C 90 % 1028,8 hPa 0,0 l/m 11,3 km/h (2 Bft) W-SW 252 0 min 0,000 mm 0,0 UV-I 41 W/m 9,1 C 7,7 C 19,3 km/h (3 Bft) 97,87 %
29.10.2016 17:08 10,7 C 90 % 1028,9 hPa 0,0 l/m 9,0 km/h (2 Bft) W-SW 237 0 min 0,000 mm 0,0 UV-I 38 W/m 9,1 C 9,0 C 17,7 km/h (3 Bft) 100,00 %
29.10.2016 17:10 10,6 C 90 % 1028,9 hPa 0,0 l/m 10,2 km/h (2 Bft) W-SW 250 0 min 0,000 mm 0,0 UV-I 34 W/m 9,0 C 8,1 C 19,3 km/h (3 Bft) 100,00 %
29.10.2016 17:12 10,6 C 90 % 1028,9 hPa 0,0 l/m 11,8 km/h (2 Bft) SW 217 0 min 0,000 mm 0,0 UV-I 30 W/m 9,0 C 7,3 C 17,7 km/h (3 Bft) 97,62 %
29.10.2016 17:14 10,6 C 91 % 1028,8 hPa 0,0 l/m 8,8 km/h (2 Bft) SW 228 0 min 0,000 mm 0,0 UV-I 28 W/m 9,2 C 9,0 C 17,7 km/h (3 Bft) 98,08 %
29.10.2016 17:16 10,6 C 90 % 1028,9 hPa 0,0 l/m 9,1 km/h (2 Bft) W-SW 240 0 min 0,000 mm 0,0 UV-I 29 W/m 9,0 C 8,8 C 17,7 km/h (3 Bft) 100,00 %
29.10.2016 17:18 10,5 C 91 % 1029,0 hPa 0,0 l/m 8,5 km/h (2 Bft) W-SW 244 0 min 0,000 mm 0,0 UV-I 27 W/m 9,1 C 9,1 C 14,5 km/h (3 Bft) 100,00 %
29.10.2016 17:20 10,4 C 91 % 1029,0 hPa 0,0 l/m 12,1 km/h (2 Bft) W-SW 241 0 min 0,000 mm 0,0 UV-I 23 W/m 9,0 C 6,9 C 17,7 km/h (3 Bft) 100,00 %
29.10.2016 17:22 10,4 C 91 % 1028,9 hPa 0,0 l/m 12,5 km/h (3 Bft) SW 225 0 min 0,000 mm 0,0 UV-I 21 W/m 9,0 C 6,7 C 16,1 km/h (3 Bft) 100,00 %
29.10.2016 17:24 10,4 C 91 % 1028,9 hPa 0,0 l/m 11,0 km/h (2 Bft) SW 233 0 min 0,000 mm 0,0 UV-I 21 W/m 9,0 C 7,5 C 16,1 km/h (3 Bft) 97,14 %
29.10.2016 17:26 10,3 C 91 % 1028,9 hPa 0,0 l/m 9,8 km/h (2 Bft) SW 219 0 min 0,000 mm 0,0 UV-I 20 W/m 8,9 C 8,0 C 16,1 km/h (3 Bft) 100,00 %
29.10.2016 17:28 10,3 C 91 % 1029,0 hPa 0,0 l/m 8,1 km/h (2 Bft) S-SW 211 0 min 0,000 mm 0,0 UV-I 19 W/m 8,9 C 9,1 C 14,5 km/h (3 Bft) 100,00 %
29.10.2016 17:30 10,2 C 91 % 1028,9 hPa 0,0 l/m 8,8 km/h (2 Bft) S-SW 206 0 min 0,000 mm 0,0 UV-I 18 W/m 8,8 C 8,5 C 14,5 km/h (3 Bft) 98,21 %
29.10.2016 17:32 10,2 C 92 % 1028,9 hPa 0,0 l/m 10,2 km/h (2 Bft) SW 234 0 min 0,000 mm 0,0 UV-I 18 W/m 9,0 C 7,7 C 17,7 km/h (3 Bft) 100,00 %
29.10.2016 17:34 10,1 C 92 % 1028,9 hPa 0,0 l/m 10,9 km/h (2 Bft) S-SW 213 2 min 0,000 mm 0,0 UV-I 17 W/m 8,9 C 7,2 C 16,1 km/h (3 Bft) 100,00 %
29.10.2016 17:36 10,1 C 92 % 1028,9 hPa 0,0 l/m 9,6 km/h (2 Bft) W-SW 241 2 min 0,000 mm 0,0 UV-I 16 W/m 8,9 C 7,9 C 14,5 km/h (3 Bft) 100,00 %
29.10.2016 17:38 10,1 C 92 % 1028,9 hPa 0,0 l/m 11,3 km/h (2 Bft) SW 225 2 min 0,000 mm 0,0 UV-I 14 W/m 8,9 C 7,0 C 17,7 km/h (3 Bft) 100,00 %
29.10.2016 17:40 10,0 C 92 % 1028,9 hPa 0,0 l/m 11,3 km/h (2 Bft) W-SW 257 0 min 0,000 mm 0,0 UV-I 13 W/m 8,8 C 6,9 C 16,1 km/h (3 Bft) 97,56 %
29.10.2016 17:42 10,0 C 92 % 1028,8 hPa 0,0 l/m 12,8 km/h (3 Bft) S-SW 209 0 min 0,000 mm 0,0 UV-I 12 W/m 8,8 C 6,1 C 17,7 km/h (3 Bft) 98,11 %
29.10.2016 17:44 9,9 C 92 % 1028,8 hPa 0,0 l/m 9,9 km/h (2 Bft) W-SW 241 0 min 0,000 mm 0,0 UV-I 11 W/m 8,7 C 7,5 C 17,7 km/h (3 Bft) 100,00 %
29.10.2016 17:46 9,9 C 92 % 1028,8 hPa 0,0 l/m 8,9 km/h (2 Bft) SW 215 0 min 0,000 mm 0,0 UV-I 11 W/m 8,7 C 8,2 C 16,1 km/h (3 Bft) 98,11 %
29.10.2016 17:48 9,8 C 92 % 1028,8 hPa 0,0 l/m 8,7 km/h (2 Bft) SW 225 0 min 0,000 mm 0,0 UV-I 9 W/m 8,6 C 8,2 C 12,9 km/h (3 Bft) 100,00 %
29.10.2016 17:50 9,8 C 92 % 1028,9 hPa 0,0 l/m 10,7 km/h (2 Bft) W 273 0 min 0,000 mm 0,0 UV-I 9 W/m 8,6 C 7,0 C 17,7 km/h (3 Bft) 98,21 %
29.10.2016 17:52 9,8 C 92 % 1028,9 hPa 0,0 l/m 9,2 km/h (2 Bft) SW 236 0 min 0,000 mm 0,0 UV-I 8 W/m 8,6 C 7,9 C 14,5 km/h (3 Bft) 100,00 %
29.10.2016 17:54 9,7 C 92 % 1028,9 hPa 0,0 l/m 10,3 km/h (2 Bft) W-SW 247 0 min 0,000 mm 0,0 UV-I 7 W/m 8,5 C 7,1 C 14,5 km/h (3 Bft) 98,08 %
29.10.2016 17:56 9,7 C 92 % 1029,0 hPa 0,0 l/m 12,4 km/h (3 Bft) W-SW 246 0 min 0,000 mm 0,0 UV-I 7 W/m 8,5 C 6,0 C 16,1 km/h (3 Bft) 100,00 %
29.10.2016 17:58 9,7 C 92 % 1029,0 hPa 0,0 l/m 9,4 km/h (2 Bft) W-SW 248 0 min 0,000 mm 0,0 UV-I 6 W/m 8,5 C 7,6 C 14,5 km/h (3 Bft) 100,00 %
29.10.2016 18:00 9,7 C 92 % 1029,0 hPa 0,0 l/m 8,9 km/h (2 Bft) W-SW 243 0 min 0,025 mm 0,0 UV-I 5 W/m 8,5 C 7,9 C 14,5 km/h (3 Bft) 100,00 %
29.10.2016 18:02 9,7 C 92 % 1029,0 hPa 0,0 l/m 9,6 km/h (2 Bft) W-SW 249 0 min 0,000 mm 0,0 UV-I 5 W/m 8,5 C 7,5 C 16,1 km/h (3 Bft) 100,00 %
29.10.2016 18:04 9,6 C 92 % 1029,1 hPa 0,0 l/m 8,9 km/h (2 Bft) SW 229 0 min 0,000 mm 0,0 UV-I 5 W/m 8,4 C 7,8 C 14,5 km/h (3 Bft) 98,00 %
29.10.2016 18:06 9,6 C 92 % 1029,1 hPa 0,0 l/m 10,2 km/h (2 Bft) W-SW 241 0 min 0,000 mm 0,0 UV-I 1 W/m 8,4 C 7,0 C 16,1 km/h (3 Bft) 100,00 %
29.10.2016 18:08 9,6 C 92 % 1029,1 hPa 0,0 l/m 7,6 km/h (2 Bft) SW 236 0 min 0,000 mm 0,0 UV-I 0 W/m 8,4 C 8,7 C 12,9 km/h (3 Bft) 97,56 %
29.10.2016 18:10 9,6 C 92 % 1029,2 hPa 0,0 l/m 8,8 km/h (2 Bft) W 261 0 min 0,000 mm 0,0 UV-I 0 W/m 8,4 C 7,9 C 16,1 km/h (3 Bft) 100,00 %
29.10.2016 18:12 9,6 C 92 % 1029,2 hPa 0,0 l/m 7,5 km/h (2 Bft) SW 232 0 min 0,000 mm 0,0 UV-I 0 W/m 8,4 C 8,8 C 12,9 km/h (3 Bft) 100,00 %
29.10.2016 18:14 9,5 C 92 % 1029,2 hPa 0,0 l/m 9,4 km/h (2 Bft) W 259 0 min 0,000 mm 0,0 UV-I 0 W/m 8,3 C 7,4 C 12,9 km/h (3 Bft) 100,00 %
29.10.2016 18:16 9,5 C 92 % 1029,3 hPa 0,0 l/m 8,1 km/h (2 Bft) SW 221 0 min 0,000 mm 0,0 UV-I 0 W/m 8,3 C 8,3 C 12,9 km/h (3 Bft) 100,00 %
29.10.2016 18:18 9,4 C 93 % 1029,3 hPa 0,0 l/m 6,5 km/h (2 Bft) SW 235 0 min 0,000 mm 0,0 UV-I 0 W/m 8,3 C 9,4 C 8,0 km/h (2 Bft) 100,00 %
29.10.2016 18:20 9,4 C 93 % 1029,3 hPa 0,0 l/m 7,7 km/h (2 Bft) W-SW 243 0 min 0,000 mm 0,0 UV-I 0 W/m 8,3 C 8,4 C 11,3 km/h (2 Bft) 97,87 %
29.10.2016 18:22 9,4 C 93 % 1029,4 hPa 0,0 l/m 7,5 km/h (2 Bft) W-SW 239 0 min 0,000 mm 0,0 UV-I 0 W/m 8,3 C 8,6 C 12,9 km/h (3 Bft) 100,00 %
29.10.2016 18:24 9,3 C 93 % 1029,4 hPa 0,0 l/m 7,6 km/h (2 Bft) W-SW 244 0 min 0,000 mm 0,0 UV-I 0 W/m 8,2 C 8,4 C 11,3 km/h (2 Bft) 100,00 %
29.10.2016 18:26 9,3 C 93 % 1029,4 hPa 0,0 l/m 7,8 km/h (2 Bft) SW 234 0 min 0,000 mm 0,0 UV-I 0 W/m 8,2 C 8,3 C 12,9 km/h (3 Bft) 97,73 %
29.10.2016 18:29 9,3 C 93 % 1029,4 hPa 0,0 l/m 9,1 km/h (2 Bft) W 261 0 min 0,000 mm 0,0 UV-I 0 W/m 8,2 C 7,4 C 14,5 km/h (3 Bft) 97,06 %
29.10.2016 18:30 9,3 C 93 % 1029,4 hPa 0,0 l/m 6,1 km/h (2 Bft) SW 236 0 min 0,000 mm 0,0 UV-I 0 W/m 8,2 C 9,3 C 8,0 km/h (2 Bft) 96,15 %
29.10.2016 18:32 9,4 C 94 % 1029,4 hPa 0,0 l/m 8,7 km/h (2 Bft) SW 217 0 min 0,000 mm 0,0 UV-I 0 W/m 8,5 C 7,7 C 11,3 km/h (2 Bft) 98,11 %
29.10.2016 18:34 9,3 C 93 % 1029,3 hPa 0,0 l/m 8,9 km/h (2 Bft) SW 232 0 min 0,000 mm 0,0 UV-I 0 W/m 8,2 C 7,5 C 12,9 km/h (3 Bft) 97,87 %
29.10.2016 18:36 9,3 C 93 % 1029,4 hPa 0,0 l/m 8,4 km/h (2 Bft) W-SW 258 0 min 0,000 mm 0,0 UV-I 0 W/m 8,2 C 7,8 C 12,9 km/h (3 Bft) 97,37 %
29.10.2016 18:38 9,3 C 93 % 1029,4 hPa 0,0 l/m 7,2 km/h (2 Bft) SW 227 0 min 0,000 mm 0,0 UV-I 0 W/m 8,2 C 8,7 C 11,3 km/h (2 Bft) 98,00 %
29.10.2016 18:40 9,2 C 93 % 1029,4 hPa 0,0 l/m 7,9 km/h (2 Bft) S 185 0 min 0,000 mm 0,0 UV-I 0 W/m 8,1 C 8,1 C 12,9 km/h (3 Bft) 94,34 %
29.10.2016 18:42 9,2 C 93 % 1029,4 hPa 0,0 l/m 9,5 km/h (2 Bft) W-SW 241 0 min 0,000 mm 0,0 UV-I 0 W/m 8,1 C 7,0 C 16,1 km/h (3 Bft) 97,37 %
29.10.2016 18:44 9,2 C 93 % 1029,4 hPa 0,0 l/m 8,6 km/h (2 Bft) W-SW 240 0 min 0,000 mm 0,0 UV-I 0 W/m 8,1 C 7,6 C 12,9 km/h (3 Bft) 97,87 %
29.10.2016 18:46 9,2 C 93 % 1029,3 hPa 0,0 l/m 10,1 km/h (2 Bft) W-SW 252 0 min 0,000 mm 0,0 UV-I 0 W/m 8,1 C 6,7 C 14,5 km/h (3 Bft) 98,00 %
29.10.2016 18:48 9,2 C 93 % 1029,4 hPa 0,0 l/m 10,0 km/h (2 Bft) SW 228 0 min 0,000 mm 0,0 UV-I 0 W/m 8,1 C 6,7 C 14,5 km/h (3 Bft) 96,00 %
29.10.2016 18:50 9,2 C 93 % 1029,4 hPa 0,0 l/m 10,2 km/h (2 Bft) SW 229 0 min 0,000 mm 0,0 UV-I 0 W/m 8,1 C 6,6 C 14,5 km/h (3 Bft) 97,87 %
29.10.2016 18:52 9,2 C 93 % 1029,4 hPa 0,0 l/m 9,9 km/h (2 Bft) W-SW 250 0 min 0,000 mm 0,0 UV-I 0 W/m 8,1 C 6,8 C 12,9 km/h (3 Bft) 94,74 %
29.10.2016 18:54 9,2 C 93 % 1029,3 hPa 0,0 l/m 9,1 km/h (2 Bft) SW 228 0 min 0,000 mm 0,0 UV-I 0 W/m 8,1 C 7,3 C 12,9 km/h (3 Bft) 98,11 %
29.10.2016 18:56 9,2 C 93 % 1029,4 hPa 0,0 l/m 9,4 km/h (2 Bft) SW 221 0 min 0,000 mm 0,0 UV-I 0 W/m 8,1 C 7,1 C 12,9 km/h (3 Bft) 98,11 %
29.10.2016 18:58 9,1 C 93 % 1029,4 hPa 0,0 l/m 7,4 km/h (2 Bft) SW 227 0 min 0,000 mm 0,0 UV-I 0 W/m 8,0 C 8,3 C 12,9 km/h (3 Bft) 97,37 %
29.10.2016 19:00 9,1 C 93 % 1029,5 hPa 0,0 l/m 8,6 km/h (2 Bft) W-SW 255 0 min 0,000 mm 0,0 UV-I 0 W/m 8,0 C 7,5 C 12,9 km/h (3 Bft) 98,21 %
29.10.2016 19:02 9,1 C 93 % 1029,5 hPa 0,0 l/m 8,5 km/h (2 Bft) SW 232 0 min 0,000 mm 0,0 UV-I 0 W/m 8,0 C 7,6 C 11,3 km/h (2 Bft) 97,37 %
29.10.2016 19:04 9,1 C 94 % 1029,5 hPa 0,0 l/m 7,7 km/h (2 Bft) W-SW 255 0 min 0,000 mm 0,0 UV-I 0 W/m 8,2 C 8,1 C 9,7 km/h (2 Bft) 97,87 %
29.10.2016 19:06 9,1 C 94 % 1029,5 hPa 0,0 l/m 8,9 km/h (2 Bft) SW 225 0 min 0,000 mm 0,0 UV-I 0 W/m 8,2 C 7,3 C 14,5 km/h (3 Bft) 100,00 %
29.10.2016 19:08 9,1 C 94 % 1029,6 hPa 0,0 l/m 7,5 km/h (2 Bft) W-SW 238 0 min 0,000 mm 0,0 UV-I 0 W/m 8,2 C 8,3 C 11,3 km/h (2 Bft) 100,00 %
29.10.2016 19:10 9,1 C 94 % 1029,6 hPa 0,0 l/m 7,5 km/h (2 Bft) W-SW 249 0 min 0,000 mm 0,0 UV-I 0 W/m 8,2 C 8,3 C 12,9 km/h (3 Bft) 100,00 %
29.10.2016 19:12 9,0 C 94 % 1029,7 hPa 0,0 l/m 8,5 km/h (2 Bft) W-SW 252 0 min 0,000 mm 0,0 UV-I 0 W/m 8,1 C 7,5 C 14,5 km/h (3 Bft) 98,00 %
29.10.2016 19:14 9,0 C 94 % 1029,7 hPa 0,0 l/m 7,8 km/h (2 Bft) W-SW 256 0 min 0,000 mm 0,0 UV-I 0 W/m 8,1 C 7,9 C 12,9 km/h (3 Bft) 97,62 %
29.10.2016 19:16 9,0 C 94 % 1029,7 hPa 0,0 l/m 10,2 km/h (2 Bft) W 261 0 min 0,000 mm 0,0 UV-I 0 W/m 8,1 C 6,4 C 16,1 km/h (3 Bft) 100,00 %
29.10.2016 19:18 9,1 C 94 % 1029,7 hPa 0,0 l/m 10,8 km/h (2 Bft) W-SW 245 0 min 0,000 mm 0,0 UV-I 0 W/m 8,2 C 6,1 C 14,5 km/h (3 Bft) 100,00 %
29.10.2016 19:20 9,1 C 94 % 1029,7 hPa 0,0 l/m 8,5 km/h (2 Bft) SW 234 0 min 0,000 mm 0,0 UV-I 0 W/m 8,2 C 7,6 C 12,9 km/h (3 Bft) 100,00 %
29.10.2016 19:22 9,1 C 94 % 1029,8 hPa 0,0 l/m 7,9 km/h (2 Bft) W-SW 247 0 min 0,000 mm 0,0 UV-I 0 W/m 8,2 C 8,0 C 11,3 km/h (2 Bft) 97,56 %
29.10.2016 19:24 9,1 C 94 % 1029,8 hPa 0,0 l/m 6,7 km/h (2 Bft) SW 229 0 min 0,000 mm 0,0 UV-I 0 W/m 8,2 C 8,9 C 8,0 km/h (2 Bft) 100,00 %
29.10.2016 19:26 9,1 C 94 % 1029,8 hPa 0,0 l/m 8,3 km/h (2 Bft) W-SW 240 0 min 0,000 mm 0,0 UV-I 0 W/m 8,2 C 7,7 C 12,9 km/h (3 Bft) 100,00 %
29.10.2016 19:28 9,1 C 94 % 1029,8 hPa 0,0 l/m 7,7 km/h (2 Bft) SW 236 0 min 0,000 mm 0,0 UV-I 0 W/m 8,2 C 8,1 C 11,3 km/h (2 Bft) 97,73 %
29.10.2016 19:30 9,1 C 94 % 1029,8 hPa 0,0 l/m 7,2 km/h (2 Bft) W-SW 254 0 min 0,000 mm 0,0 UV-I 0 W/m 8,2 C 8,5 C 11,3 km/h (2 Bft) 97,56 %
29.10.2016 19:32 9,1 C 94 % 1029,8 hPa 0,0 l/m 8,6 km/h (2 Bft) W-SW 238 0 min 0,000 mm 0,0 UV-I 0 W/m 8,2 C 7,5 C 12,9 km/h (3 Bft) 100,00 %
29.10.2016 19:34 9,1 C 94 % 1029,8 hPa 0,0 l/m 8,4 km/h (2 Bft) W-SW 250 0 min 0,000 mm 0,0 UV-I 0 W/m 8,2 C 7,6 C 12,9 km/h (3 Bft) 100,00 %
29.10.2016 19:36 9,0 C 94 % 1029,8 hPa 0,0 l/m 9,7 km/h (2 Bft) SW 234 0 min 0,000 mm 0,0 UV-I 0 W/m 8,1 C 6,7 C 14,5 km/h (3 Bft) 96,61 %
29.10.2016 19:38 9,0 C 94 % 1029,7 hPa 0,0 l/m 10,3 km/h (2 Bft) SW 232 0 min 0,000 mm 0,0 UV-I 0 W/m 8,1 C 6,3 C 14,5 km/h (3 Bft) 97,56 %
29.10.2016 19:40 8,9 C 94 % 1029,7 hPa 0,0 l/m 9,9 km/h (2 Bft) W-SW 239 0 min 0,000 mm 0,0 UV-I 0 W/m 8,0 C 6,4 C 14,5 km/h (3 Bft) 100,00 %
29.10.2016 19:42 8,9 C 94 % 1029,7 hPa 0,0 l/m 10,6 km/h (2 Bft) SW 232 0 min 0,000 mm 0,0 UV-I 0 W/m 8,0 C 6,0 C 16,1 km/h (3 Bft) 100,00 %
29.10.2016 19:44 8,9 C 94 % 1029,7 hPa 0,0 l/m 12,1 km/h (2 Bft) SW 226 0 min 0,000 mm 0,0 UV-I 0 W/m 8,0 C 5,2 C 17,7 km/h (3 Bft) 96,23 %
29.10.2016 19:46 9,0 C 94 % 1029,7 hPa 0,0 l/m 11,0 km/h (2 Bft) W-SW 246 0 min 0,000 mm 0,0 UV-I 0 W/m 8,1 C 5,9 C 17,7 km/h (3 Bft) 100,00 %
29.10.2016 19:48 9,0 C 94 % 1029,8 hPa 0,0 l/m 8,1 km/h (2 Bft) SW 236 0 min 0,000 mm 0,0 UV-I 0 W/m 8,1 C 7,7 C 12,9 km/h (3 Bft) 98,00 %
29.10.2016 19:50 9,0 C 94 % 1029,8 hPa 0,0 l/m 10,0 km/h (2 Bft) SW 229 0 min 0,000 mm 0,0 UV-I 0 W/m 8,1 C 6,5 C 16,1 km/h (3 Bft) 100,00 %
29.10.2016 19:52 9,1 C 94 % 1029,8 hPa 0,0 l/m 12,7 km/h (3 Bft) SW 233 0 min 0,000 mm 0,0 UV-I 0 W/m 8,2 C 5,1 C 17,7 km/h (3 Bft) 100,00 %
29.10.2016 19:54 9,1 C 94 % 1029,7 hPa 0,0 l/m 12,8 km/h (3 Bft) SW 223 0 min 0,000 mm 0,0 UV-I 0 W/m 8,2 C 5,1 C 19,3 km/h (3 Bft) 100,00 %
29.10.2016 19:56 9,2 C 94 % 1029,8 hPa 0,0 l/m 13,7 km/h (3 Bft) SW 236 0 min 0,000 mm 0,0 UV-I 0 W/m 8,3 C 4,8 C 19,3 km/h (3 Bft) 100,00 %
29.10.2016 19:58 9,2 C 93 % 1029,8 hPa 0,0 l/m 10,3 km/h (2 Bft) W-SW 247 0 min 0,000 mm 0,0 UV-I 0 W/m 8,1 C 6,5 C 17,7 km/h (3 Bft) 100,00 %
29.10.2016 20:00 9,1 C 93 % 1029,8 hPa 0,0 l/m 13,4 km/h (3 Bft) SW 235 0 min 0,000 mm 0,0 UV-I 0 W/m 8,0 C 4,8 C 17,7 km/h (3 Bft) 100,00 %
29.10.2016 20:02 9,1 C 93 % 1029,8 hPa 0,0 l/m 9,9 km/h (2 Bft) SW 234 0 min 0,000 mm 0,0 UV-I 0 W/m 8,0 C 6,7 C 14,5 km/h (3 Bft) 98,11 %
29.10.2016 20:04 9,1 C 93 % 1029,8 hPa 0,0 l/m 11,6 km/h (2 Bft) SW 236 0 min 0,000 mm 0,0 UV-I 0 W/m 8,0 C 5,7 C 16,1 km/h (3 Bft) 100,00 %
29.10.2016 20:06 9,1 C 93 % 1029,7 hPa 0,0 l/m 11,1 km/h (2 Bft) SW 231 0 min 0,000 mm 0,0 UV-I 0 W/m 8,0 C 6,0 C 17,7 km/h (3 Bft) 100,00 %
29.10.2016 20:08 9,0 C 93 % 1029,7 hPa 0,0 l/m 10,3 km/h (2 Bft) W-SW 244 0 min 0,000 mm 0,0 UV-I 0 W/m 7,9 C 6,3 C 16,1 km/h (3 Bft) 100,00 %
29.10.2016 20:10 8,9 C 93 % 1029,7 hPa 0,0 l/m 11,0 km/h (2 Bft) SW 218 0 min 0,000 mm 0,0 UV-I 0 W/m 7,8 C 5,8 C 16,1 km/h (3 Bft) 100,00 %
29.10.2016 20:12 8,9 C 93 % 1029,7 hPa 0,0 l/m 11,1 km/h (2 Bft) W-SW 237 0 min 0,000 mm 0,0 UV-I 0 W/m 7,8 C 5,7 C 16,1 km/h (3 Bft) 98,00 %
29.10.2016 20:14 8,9 C 93 % 1029,7 hPa 0,0 l/m 9,3 km/h (2 Bft) SW 232 0 min 0,000 mm 0,0 UV-I 0 W/m 7,8 C 6,8 C 14,5 km/h (3 Bft) 100,00 %
29.10.2016 20:16 8,8 C 93 % 1029,8 hPa 0,0 l/m 9,9 km/h (2 Bft) W-SW 250 0 min 0,000 mm 0,0 UV-I 0 W/m 7,7 C 6,3 C 14,5 km/h (3 Bft) 100,00 %
29.10.2016 20:18 8,8 C 93 % 1029,9 hPa 0,0 l/m 8,8 km/h (2 Bft) SW 235 0 min 0,000 mm 0,0 UV-I 0 W/m 7,7 C 7,0 C 14,5 km/h (3 Bft) 100,00 %
29.10.2016 20:20 8,8 C 93 % 1029,9 hPa 0,0 l/m 8,4 km/h (2 Bft) SW 214 0 min 0,000 mm 0,0 UV-I 0 W/m 7,7 C 7,3 C 11,3 km/h (2 Bft) 97,87 %
29.10.2016 20:22 8,7 C 93 % 1029,8 hPa 0,0 l/m 6,9 km/h (2 Bft) W-SW 238 0 min 0,000 mm 0,0 UV-I 0 W/m 7,6 C 8,3 C 9,7 km/h (2 Bft) 100,00 %
29.10.2016 20:24 8,6 C 93 % 1029,8 hPa 0,0 l/m 8,2 km/h (2 Bft) SW 229 0 min 0,000 mm 0,0 UV-I 0 W/m 7,5 C 7,2 C 11,3 km/h (2 Bft) 100,00 %
29.10.2016 20:26 8,6 C 94 % 1029,8 hPa 0,0 l/m 9,9 km/h (2 Bft) W-SW 238 0 min 0,000 mm 0,0 UV-I 0 W/m 7,7 C 6,1 C 16,1 km/h (3 Bft) 100,00 %
29.10.2016 20:28 8,6 C 94 % 1029,8 hPa 0,0 l/m 9,4 km/h (2 Bft) SW 230 0 min 0,000 mm 0,0 UV-I 0 W/m 7,7 C 6,4 C 14,5 km/h (3 Bft) 100,00 %
29.10.2016 20:30 8,6 C 94 % 1029,9 hPa 0,0 l/m 8,6 km/h (2 Bft) SW 227 0 min 0,000 mm 0,0 UV-I 0 W/m 7,7 C 7,0 C 12,9 km/h (3 Bft) 100,00 %
29.10.2016 20:32 8,6 C 94 % 1029,9 hPa 0,0 l/m 7,3 km/h (2 Bft) W-SW 239 0 min 0,000 mm 0,0 UV-I 0 W/m 7,7 C 7,9 C 11,3 km/h (2 Bft) 100,00 %
29.10.2016 20:34 8,5 C 94 % 1029,9 hPa 0,0 l/m 8,7 km/h (2 Bft) S-SW 209 0 min 0,000 mm 0,0 UV-I 0 W/m 7,6 C 6,8 C 11,3 km/h (2 Bft) 100,00 %
29.10.2016 20:36 8,4 C 94 % 1029,9 hPa 0,0 l/m 7,8 km/h (2 Bft) SW 232 0 min 0,000 mm 0,0 UV-I 0 W/m 7,5 C 7,3 C 9,7 km/h (2 Bft) 100,00 %
29.10.2016 20:38 8,4 C 94 % 1029,9 hPa 0,0 l/m 9,0 km/h (2 Bft) SW 220 0 min 0,000 mm 0,0 UV-I 0 W/m 7,5 C 6,5 C 12,9 km/h (3 Bft) 98,21 %
29.10.2016 20:40 8,4 C 94 % 1029,9 hPa 0,0 l/m 8,3 km/h (2 Bft) SW 216 0 min 0,000 mm 0,0 UV-I 0 W/m 7,5 C 7,0 C 12,9 km/h (3 Bft) 97,56 %
29.10.2016 20:42 8,4 C 94 % 1029,9 hPa 0,0 l/m 9,9 km/h (2 Bft) W-SW 247 0 min 0,000 mm 0,0 UV-I 0 W/m 7,5 C 5,9 C 14,5 km/h (3 Bft) 96,23 %
29.10.2016 20:44 8,5 C 94 % 1029,9 hPa 0,0 l/m 10,3 km/h (2 Bft) S-SW 193 0 min 0,000 mm 0,0 UV-I 0 W/m 7,6 C 5,8 C 14,5 km/h (3 Bft) 97,56 %
29.10.2016 20:46 8,5 C 94 % 1029,9 hPa 0,0 l/m 8,9 km/h (2 Bft) SW 224 0 min 0,000 mm 0,0 UV-I 0 W/m 7,6 C 6,6 C 12,9 km/h (3 Bft) 95,74 %
29.10.2016 20:48 8,5 C 94 % 1029,9 hPa 0,0 l/m 10,3 km/h (2 Bft) SW 232 0 min 0,000 mm 0,0 UV-I 0 W/m 7,6 C 5,8 C 17,7 km/h (3 Bft) 96,00 %
29.10.2016 20:50 8,4 C 94 % 1029,9 hPa 0,0 l/m 10,6 km/h (2 Bft) SW 222 0 min 0,000 mm 0,0 UV-I 0 W/m 7,5 C 5,5 C 16,1 km/h (3 Bft) 97,73 %
29.10.2016 20:52 8,4 C 94 % 1029,9 hPa 0,0 l/m 10,7 km/h (2 Bft) S-SW 209 0 min 0,000 mm 0,0 UV-I 0 W/m 7,5 C 5,4 C 17,7 km/h (3 Bft) 98,11 %
29.10.2016 20:54 8,5 C 94 % 1029,9 hPa 0,0 l/m 10,7 km/h (2 Bft) S-SW 200 0 min 0,000 mm 0,0 UV-I 0 W/m 7,6 C 5,5 C 16,1 km/h (3 Bft) 97,56 %
29.10.2016 20:56 8,4 C 94 % 1029,9 hPa 0,0 l/m 9,8 km/h (2 Bft) S-SW 201 0 min 0,000 mm 0,0 UV-I 0 W/m 7,5 C 6,0 C 16,1 km/h (3 Bft) 97,56 %
29.10.2016 20:58 8,4 C 94 % 1029,8 hPa 0,0 l/m 10,7 km/h (2 Bft) S-SW 202 0 min 0,000 mm 0,0 UV-I 0 W/m 7,5 C 5,4 C 17,7 km/h (3 Bft) 98,11 %
29.10.2016 21:00 8,4 C 94 % 1029,8 hPa 0,0 l/m 11,3 km/h (2 Bft) SW 214 0 min 0,000 mm 0,0 UV-I 0 W/m 7,5 C 5,1 C 16,1 km/h (3 Bft) 98,00 %
29.10.2016 21:02 8,5 C 94 % 1029,8 hPa 0,0 l/m 11,6 km/h (2 Bft) SW 230 0 min 0,000 mm 0,0 UV-I 0 W/m 7,6 C 5,0 C 19,3 km/h (3 Bft) 95,83 %
29.10.2016 21:04 8,5 C 94 % 1029,8 hPa 0,0 l/m 14,3 km/h (3 Bft) SW 234 0 min 0,000 mm 0,0 UV-I 0 W/m 7,6 C 3,6 C 20,9 km/h (4 Bft) 95,71 %
29.10.2016 21:06 8,5 C 94 % 1029,9 hPa 0,0 l/m 13,8 km/h (3 Bft) SW 231 0 min 0,000 mm 0,0 UV-I 0 W/m 7,6 C 3,9 C 20,9 km/h (4 Bft) 100,00 %
29.10.2016 21:08 8,5 C 94 % 1029,9 hPa 0,0 l/m 14,4 km/h (3 Bft) S-SW 211 0 min 0,000 mm 0,0 UV-I 0 W/m 7,6 C 3,6 C 19,3 km/h (3 Bft) 97,56 %
29.10.2016 21:10 8,5 C 94 % 1029,9 hPa 0,0 l/m 13,9 km/h (3 Bft) SW 232 0 min 0,000 mm 0,0 UV-I 0 W/m 7,6 C 3,8 C 19,3 km/h (3 Bft) 96,23 %
29.10.2016 21:12 8,5 C 94 % 1029,9 hPa 0,0 l/m 14,8 km/h (3 Bft) W-SW 243 0 min 0,000 mm 0,0 UV-I 0 W/m 7,6 C 3,4 C 19,3 km/h (3 Bft) 97,44 %
29.10.2016 21:14 8,5 C 93 % 1029,9 hPa 0,0 l/m 15,0 km/h (3 Bft) W-SW 258 0 min 0,000 mm 0,0 UV-I 0 W/m 7,4 C 3,3 C 20,9 km/h (4 Bft) 98,11 %
29.10.2016 21:16 8,4 C 93 % 1030,0 hPa 0,0 l/m 12,3 km/h (3 Bft) W-SW 240 0 min 0,000 mm 0,0 UV-I 0 W/m 7,3 C 4,5 C 19,3 km/h (3 Bft) 100,00 %
29.10.2016 21:18 8,4 C 93 % 1030,0 hPa 0,0 l/m 12,9 km/h (3 Bft) W-SW 248 0 min 0,000 mm 0,0 UV-I 0 W/m 7,3 C 4,2 C 19,3 km/h (3 Bft) 98,00 %
29.10.2016 21:20 8,4 C 94 % 1030,0 hPa 0,0 l/m 15,9 km/h (3 Bft) SW 227 0 min 0,000 mm 0,0 UV-I 0 W/m 7,5 C 2,8 C 20,9 km/h (4 Bft) 98,00 %
29.10.2016 21:23 8,5 C 94 % 1030,0 hPa 0,0 l/m 13,2 km/h (3 Bft) SW 232 0 min 0,000 mm 0,0 UV-I 0 W/m 7,6 C 4,2 C 20,9 km/h (4 Bft) 98,51 %
29.10.2016 21:24 8,5 C 94 % 1030,0 hPa 0,0 l/m 14,6 km/h (3 Bft) SW 235 0 min 0,000 mm 0,0 UV-I 0 W/m 7,6 C 3,5 C 19,3 km/h (3 Bft) 100,00 %
29.10.2016 21:26 8,5 C 94 % 1030,0 hPa 0,0 l/m 12,1 km/h (2 Bft) W-SW 250 0 min 0,000 mm 0,0 UV-I 0 W/m 7,6 C 4,7 C 19,3 km/h (3 Bft) 97,56 %
29.10.2016 21:28 8,6 C 93 % 1030,0 hPa 0,0 l/m 13,9 km/h (3 Bft) S-SW 198 0 min 0,000 mm 0,0 UV-I 0 W/m 7,5 C 3,9 C 17,7 km/h (3 Bft) 100,00 %
29.10.2016 21:30 8,6 C 93 % 1029,9 hPa 0,0 l/m 13,7 km/h (3 Bft) SW 215 0 min 0,000 mm 0,0 UV-I 0 W/m 7,5 C 4,0 C 17,7 km/h (3 Bft) 100,00 %
29.10.2016 21:32 8,6 C 93 % 1029,9 hPa 0,0 l/m 12,8 km/h (3 Bft) SW 228 0 min 0,000 mm 0,0 UV-I 0 W/m 7,5 C 4,5 C 20,9 km/h (4 Bft) 100,00 %
29.10.2016 21:34 8,6 C 93 % 1029,9 hPa 0,0 l/m 10,7 km/h (2 Bft) SW 227 0 min 0,000 mm 0,0 UV-I 0 W/m 7,5 C 5,6 C 14,5 km/h (3 Bft) 100,00 %
29.10.2016 21:36 8,6 C 93 % 1029,9 hPa 0,0 l/m 9,4 km/h (2 Bft) W-SW 237 0 min 0,000 mm 0,0 UV-I 0 W/m 7,5 C 6,4 C 17,7 km/h (3 Bft) 98,00 %
29.10.2016 21:38 8,6 C 93 % 1029,9 hPa 0,0 l/m 11,7 km/h (2 Bft) W-SW 250 0 min 0,000 mm 0,0 UV-I 0 W/m 7,5 C 5,1 C 16,1 km/h (3 Bft) 97,37 %
29.10.2016 21:40 8,6 C 93 % 1029,9 hPa 0,0 l/m 11,5 km/h (2 Bft) SW 232 0 min 0,000 mm 0,0 UV-I 0 W/m 7,5 C 5,2 C 17,7 km/h (3 Bft) 100,00 %
29.10.2016 21:42 8,6 C 93 % 1029,9 hPa 0,0 l/m 13,8 km/h (3 Bft) W-SW 254 0 min 0,000 mm 0,0 UV-I 0 W/m 7,5 C 4,0 C 17,7 km/h (3 Bft) 97,56 %
29.10.2016 21:44 8,6 C 93 % 1029,9 hPa 0,0 l/m 10,7 km/h (2 Bft) W-SW 238 0 min 0,000 mm 0,0 UV-I 0 W/m 7,5 C 5,6 C 14,5 km/h (3 Bft) 98,00 %
29.10.2016 21:46 8,6 C 93 % 1029,9 hPa 0,0 l/m 12,0 km/h (2 Bft) W-SW 253 0 min 0,000 mm 0,0 UV-I 0 W/m 7,5 C 4,9 C 17,7 km/h (3 Bft) 97,87 %
29.10.2016 21:48 8,6 C 93 % 1029,9 hPa 0,0 l/m 11,1 km/h (2 Bft) SW 215 0 min 0,000 mm 0,0 UV-I 0 W/m 7,5 C 5,4 C 17,7 km/h (3 Bft) 100,00 %
29.10.2016 21:50 8,6 C 93 % 1029,8 hPa 0,0 l/m 10,6 km/h (2 Bft) SW 223 0 min 0,000 mm 0,0 UV-I 0 W/m 7,5 C 5,7 C 17,7 km/h (3 Bft) 96,00 %
29.10.2016 21:52 8,6 C 93 % 1029,8 hPa 0,0 l/m 12,3 km/h (3 Bft) SW 232 0 min 0,000 mm 0,0 UV-I 0 W/m 7,5 C 4,7 C 19,3 km/h (3 Bft) 100,00 %
29.10.2016 21:54 8,6 C 93 % 1029,9 hPa 0,0 l/m 13,1 km/h (3 Bft) SW 215 0 min 0,000 mm 0,0 UV-I 0 W/m 7,5 C 4,3 C 17,7 km/h (3 Bft) 100,00 %
29.10.2016 21:56 8,6 C 93 % 1029,9 hPa 0,0 l/m 12,2 km/h (2 Bft) SW 231 0 min 0,000 mm 0,0 UV-I 0 W/m 7,5 C 4,8 C 16,1 km/h (3 Bft) 100,00 %
29.10.2016 21:58 8,6 C 93 % 1029,9 hPa 0,0 l/m 10,7 km/h (2 Bft) W-SW 248 0 min 0,000 mm 0,0 UV-I 0 W/m 7,5 C 5,6 C 17,7 km/h (3 Bft) 100,00 %
29.10.2016 22:00 8,6 C 93 % 1030,0 hPa 0,0 l/m 11,9 km/h (2 Bft) W-SW 248 0 min 0,000 mm 0,0 UV-I 0 W/m 7,5 C 5,0 C 16,1 km/h (3 Bft) 100,00 %
29.10.2016 22:02 8,6 C 93 % 1030,0 hPa 0,0 l/m 11,7 km/h (2 Bft) W-SW 242 0 min 0,000 mm 0,0 UV-I 0 W/m 7,5 C 5,1 C 16,1 km/h (3 Bft) 97,87 %
29.10.2016 22:04 8,6 C 93 % 1030,0 hPa 0,0 l/m 13,8 km/h (3 Bft) W-SW 248 0 min 0,000 mm 0,0 UV-I 0 W/m 7,5 C 4,0 C 19,3 km/h (3 Bft) 100,00 %
29.10.2016 22:06 8,6 C 93 % 1030,0 hPa 0,0 l/m 13,2 km/h (3 Bft) W-SW 240 0 min 0,000 mm 0,0 UV-I 0 W/m 7,5 C 4,3 C 19,3 km/h (3 Bft) 100,00 %
29.10.2016 22:08 8,6 C 93 % 1030,1 hPa 0,0 l/m 11,5 km/h (2 Bft) W-SW 244 0 min 0,000 mm 0,0 UV-I 0 W/m 7,5 C 5,2 C 17,7 km/h (3 Bft) 97,37 %
29.10.2016 22:10 8,6 C 93 % 1030,0 hPa 0,0 l/m 12,0 km/h (2 Bft) W 273 0 min 0,000 mm 0,0 UV-I 0 W/m 7,5 C 4,9 C 16,1 km/h (3 Bft) 100,00 %
29.10.2016 22:12 8,6 C 93 % 1030,0 hPa 0,0 l/m 12,1 km/h (2 Bft) W-SW 238 0 min 0,000 mm 0,0 UV-I 0 W/m 7,5 C 4,8 C 16,1 km/h (3 Bft) 100,00 %
29.10.2016 22:14 8,6 C 93 % 1030,0 hPa 0,0 l/m 11,0 km/h (2 Bft) W-SW 240 0 min 0,000 mm 0,0 UV-I 0 W/m 7,5 C 5,5 C 16,1 km/h (3 Bft) 100,00 %
29.10.2016 22:16 8,6 C 93 % 1030,0 hPa 0,0 l/m 9,3 km/h (2 Bft) SW 232 0 min 0,000 mm 0,0 UV-I 0 W/m 7,5 C 6,5 C 14,5 km/h (3 Bft) 100,00 %
29.10.2016 22:18 8,6 C 93 % 1030,0 hPa 0,0 l/m 12,5 km/h (3 Bft) W-SW 258 0 min 0,000 mm 0,0 UV-I 0 W/m 7,5 C 4,6 C 16,1 km/h (3 Bft) 100,00 %
29.10.2016 22:20 8,6 C 93 % 1030,1 hPa 0,0 l/m 12,4 km/h (3 Bft) W-SW 248 0 min 0,000 mm 0,0 UV-I 0 W/m 7,5 C 4,7 C 16,1 km/h (3 Bft) 100,00 %
29.10.2016 22:22 8,6 C 93 % 1030,1 hPa 0,0 l/m 10,9 km/h (2 Bft) W-SW 242 0 min 0,000 mm 0,0 UV-I 0 W/m 7,5 C 5,5 C 14,5 km/h (3 Bft) 100,00 %
29.10.2016 22:24 8,7 C 93 % 1030,1 hPa 0,0 l/m 13,4 km/h (3 Bft) W 264 0 min 0,000 mm 0,0 UV-I 0 W/m 7,6 C 4,3 C 17,7 km/h (3 Bft) 98,11 %
29.10.2016 22:26 8,7 C 93 % 1030,1 hPa 0,0 l/m 11,8 km/h (2 Bft) W-SW 242 0 min 0,000 mm 0,0 UV-I 0 W/m 7,6 C 5,1 C 16,1 km/h (3 Bft) 97,44 %
29.10.2016 22:28 8,7 C 93 % 1030,2 hPa 0,0 l/m 12,8 km/h (3 Bft) W-SW 245 0 min 0,000 mm 0,0 UV-I 0 W/m 7,6 C 4,6 C 17,7 km/h (3 Bft) 100,00 %
29.10.2016 22:30 8,7 C 92 % 1030,2 hPa 0,0 l/m 11,8 km/h (2 Bft) W 259 0 min 0,000 mm 0,0 UV-I 0 W/m 7,5 C 5,1 C 19,3 km/h (3 Bft) 100,00 %
29.10.2016 22:32 8,7 C 92 % 1030,2 hPa 0,0 l/m 12,3 km/h (3 Bft) W-SW 256 0 min 0,000 mm 0,0 UV-I 0 W/m 7,5 C 4,9 C 16,1 km/h (3 Bft) 100,00 %
29.10.2016 22:34 8,7 C 92 % 1030,2 hPa 0,0 l/m 11,6 km/h (2 Bft) W-SW 238 0 min 0,000 mm 0,0 UV-I 0 W/m 7,5 C 5,2 C 17,7 km/h (3 Bft) 100,00 %
29.10.2016 22:36 8,7 C 92 % 1030,2 hPa 0,0 l/m 12,7 km/h (3 Bft) W-SW 251 0 min 0,000 mm 0,0 UV-I 0 W/m 7,5 C 4,7 C 17,7 km/h (3 Bft) 98,21 %
29.10.2016 22:38 8,7 C 92 % 1030,2 hPa 0,0 l/m 11,7 km/h (2 Bft) W 262 0 min 0,000 mm 0,0 UV-I 0 W/m 7,5 C 5,2 C 16,1 km/h (3 Bft) 97,37 %
29.10.2016 22:40 8,7 C 92 % 1030,2 hPa 0,0 l/m 11,6 km/h (2 Bft) SW 235 0 min 0,000 mm 0,0 UV-I 0 W/m 7,5 C 5,2 C 16,1 km/h (3 Bft) 98,21 %
29.10.2016 22:42 8,7 C 92 % 1030,2 hPa 0,0 l/m 13,4 km/h (3 Bft) W-SW 252 0 min 0,000 mm 0,0 UV-I 0 W/m 7,5 C 4,3 C 17,7 km/h (3 Bft) 100,00 %
29.10.2016 22:44 8,7 C 92 % 1030,2 hPa 0,0 l/m 11,0 km/h (2 Bft) W-SW 248 0 min 0,000 mm 0,0 UV-I 0 W/m 7,5 C 5,6 C 16,1 km/h (3 Bft) 100,00 %
29.10.2016 22:46 8,7 C 92 % 1030,2 hPa 0,0 l/m 8,8 km/h (2 Bft) W-SW 257 0 min 0,000 mm 0,0 UV-I 0 W/m 7,5 C 6,9 C 14,5 km/h (3 Bft) 100,00 %
29.10.2016 22:48 8,7 C 92 % 1030,2 hPa 0,0 l/m 10,7 km/h (2 Bft) W 262 0 min 0,000 mm 0,0 UV-I 0 W/m 7,5 C 5,7 C 14,5 km/h (3 Bft) 97,73 %
29.10.2016 22:50 8,7 C 92 % 1030,2 hPa 0,0 l/m 9,5 km/h (2 Bft) W-SW 255 0 min 0,000 mm 0,0 UV-I 0 W/m 7,5 C 6,5 C 12,9 km/h (3 Bft) 98,00 %
29.10.2016 22:52 8,7 C 92 % 1030,2 hPa 0,0 l/m 8,6 km/h (2 Bft) W-SW 249 0 min 0,000 mm 0,0 UV-I 0 W/m 7,5 C 7,1 C 14,5 km/h (3 Bft) 97,56 %
29.10.2016 22:54 8,7 C 92 % 1030,2 hPa 0,0 l/m 7,5 km/h (2 Bft) W-SW 244 0 min 0,000 mm 0,0 UV-I 0 W/m 7,5 C 7,9 C 11,3 km/h (2 Bft) 98,00 %
29.10.2016 22:56 8,7 C 92 % 1030,2 hPa 0,0 l/m 9,4 km/h (2 Bft) W-SW 250 0 min 0,000 mm 0,0 UV-I 0 W/m 7,5 C 6,5 C 14,5 km/h (3 Bft) 97,96 %
29.10.2016 22:58 8,7 C 92 % 1030,2 hPa 0,0 l/m 11,0 km/h (2 Bft) W 267 0 min 0,000 mm 0,0 UV-I 0 W/m 7,5 C 5,6 C 17,7 km/h (3 Bft) 97,56 %
29.10.2016 23:00 8,7 C 92 % 1030,1 hPa 0,0 l/m 7,9 km/h (2 Bft) SW 219 0 min 0,000 mm 0,0 UV-I 0 W/m 7,5 C 7,6 C 14,5 km/h (3 Bft) 98,00 %
29.10.2016 23:02 8,7 C 92 % 1030,0 hPa 0,0 l/m 7,3 km/h (2 Bft) SW 225 0 min 0,000 mm 0,0 UV-I 0 W/m 7,5 C 8,0 C 12,9 km/h (3 Bft) 96,00 %
29.10.2016 23:04 8,6 C 92 % 1030,0 hPa 0,0 l/m 7,8 km/h (2 Bft) W-SW 255 0 min 0,000 mm 0,0 UV-I 0 W/m 7,4 C 7,5 C 12,9 km/h (3 Bft) 97,37 %
29.10.2016 23:06 8,6 C 92 % 1030,0 hPa 0,0 l/m 7,9 km/h (2 Bft) W-SW 257 0 min 0,000 mm 0,0 UV-I 0 W/m 7,4 C 7,5 C 12,9 km/h (3 Bft) 96,43 %
29.10.2016 23:08 8,6 C 92 % 1030,0 hPa 0,0 l/m 5,3 km/h (1 Bft) W-SW 240 0 min 0,000 mm 0,0 UV-I 0 W/m 7,4 C 8,6 C 11,3 km/h (2 Bft) 97,22 %
29.10.2016 23:10 8,6 C 92 % 1030,0 hPa 0,0 l/m 7,6 km/h (2 Bft) W-SW 254 0 min 0,000 mm 0,0 UV-I 0 W/m 7,4 C 7,7 C 11,3 km/h (2 Bft) 92,86 %
29.10.2016 23:12 8,6 C 92 % 1030,0 hPa 0,0 l/m 7,9 km/h (2 Bft) W 263 0 min 0,000 mm 0,0 UV-I 0 W/m 7,4 C 7,5 C 11,3 km/h (2 Bft) 97,56 %
29.10.2016 23:14 8,6 C 92 % 1030,0 hPa 0,0 l/m 6,5 km/h (2 Bft) W 259 0 min 0,000 mm 0,0 UV-I 0 W/m 7,4 C 8,5 C 9,7 km/h (2 Bft) 98,00 %
29.10.2016 23:16 8,6 C 92 % 1030,0 hPa 0,0 l/m 6,8 km/h (2 Bft) W-SW 252 0 min 0,000 mm 0,0 UV-I 0 W/m 7,4 C 8,3 C 11,3 km/h (2 Bft) 97,87 %
29.10.2016 23:18 8,6 C 92 % 1030,0 hPa 0,0 l/m 7,5 km/h (2 Bft) W-SW 246 0 min 0,000 mm 0,0 UV-I 0 W/m 7,4 C 7,8 C 11,3 km/h (2 Bft) 94,00 %
29.10.2016 23:20 8,6 C 92 % 1030,0 hPa 0,0 l/m 5,6 km/h (1 Bft) W 261 0 min 0,000 mm 0,0 UV-I 0 W/m 7,4 C 8,6 C 11,3 km/h (2 Bft) 97,37 %
29.10.2016 23:22 8,6 C 92 % 1029,9 hPa 0,0 l/m 8,4 km/h (2 Bft) W 259 0 min 0,000 mm 0,0 UV-I 0 W/m 7,4 C 7,1 C 12,9 km/h (3 Bft) 96,43 %
29.10.2016 23:24 8,6 C 92 % 1030,0 hPa 0,0 l/m 8,2 km/h (2 Bft) W 265 0 min 0,000 mm 0,0 UV-I 0 W/m 7,4 C 7,2 C 12,9 km/h (3 Bft) 93,62 %
29.10.2016 23:26 8,6 C 92 % 1029,9 hPa 0,0 l/m 6,2 km/h (2 Bft) W-SW 256 0 min 0,000 mm 0,0 UV-I 0 W/m 7,4 C 8,6 C 9,7 km/h (2 Bft) 100,00 %
29.10.2016 23:28 8,6 C 92 % 1029,9 hPa 0,0 l/m 9,8 km/h (2 Bft) W 262 0 min 0,000 mm 0,0 UV-I 0 W/m 7,4 C 6,2 C 12,9 km/h (3 Bft) 100,00 %
29.10.2016 23:30 8,6 C 92 % 1029,9 hPa 0,0 l/m 7,7 km/h (2 Bft) W-SW 244 0 min 0,000 mm 0,0 UV-I 0 W/m 7,4 C 7,6 C 11,3 km/h (2 Bft) 100,00 %
29.10.2016 23:32 8,6 C 92 % 1029,9 hPa 0,0 l/m 9,1 km/h (2 Bft) W-SW 252 0 min 0,000 mm 0,0 UV-I 0 W/m 7,4 C 6,6 C 14,5 km/h (3 Bft) 97,14 %
29.10.2016 23:34 8,7 C 92 % 1029,9 hPa 0,0 l/m 7,3 km/h (2 Bft) W-SW 256 0 min 0,000 mm 0,0 UV-I 0 W/m 7,5 C 8,0 C 12,9 km/h (3 Bft) 100,00 %
29.10.2016 23:36 8,7 C 92 % 1029,9 hPa 0,0 l/m 6,6 km/h (2 Bft) W-SW 248 0 min 0,000 mm 0,0 UV-I 0 W/m 7,5 C 8,6 C 11,3 km/h (2 Bft) 100,00 %
29.10.2016 23:38 8,7 C 92 % 1029,8 hPa 0,0 l/m 5,8 km/h (2 Bft) W-SW 258 0 min 0,000 mm 0,0 UV-I 0 W/m 7,5 C 8,7 C 9,7 km/h (2 Bft) 100,00 %
29.10.2016 23:40 8,7 C 92 % 1029,8 hPa 0,0 l/m 7,0 km/h (2 Bft) W-SW 245 0 min 0,000 mm 0,0 UV-I 0 W/m 7,5 C 8,2 C 11,3 km/h (2 Bft) 100,00 %
29.10.2016 23:42 8,7 C 92 % 1029,8 hPa 0,0 l/m 7,5 km/h (2 Bft) W 273 0 min 0,000 mm 0,0 UV-I 0 W/m 7,5 C 7,9 C 11,3 km/h (2 Bft) 100,00 %
29.10.2016 23:44 8,7 C 92 % 1029,8 hPa 0,0 l/m 8,4 km/h (2 Bft) W-SW 254 0 min 0,000 mm 0,0 UV-I 0 W/m 7,5 C 7,2 C 12,9 km/h (3 Bft) 100,00 %
29.10.2016 23:46 8,7 C 92 % 1029,9 hPa 0,0 l/m 7,4 km/h (2 Bft) W 262 0 min 0,000 mm 0,0 UV-I 0 W/m 7,5 C 7,9 C 11,3 km/h (2 Bft) 100,00 %
29.10.2016 23:48 8,6 C 92 % 1029,8 hPa 0,0 l/m 6,8 km/h (2 Bft) SW 221 0 min 0,000 mm 0,0 UV-I 0 W/m 7,4 C 8,3 C 9,7 km/h (2 Bft) 100,00 %
29.10.2016 23:50 8,7 C 92 % 1029,8 hPa 0,0 l/m 7,4 km/h (2 Bft) W-SW 254 0 min 0,000 mm 0,0 UV-I 0 W/m 7,5 C 7,9 C 11,3 km/h (2 Bft) 97,73 %
29.10.2016 23:52 8,7 C 92 % 1029,8 hPa 0,0 l/m 6,7 km/h (2 Bft) SW 232 0 min 0,000 mm 0,0 UV-I 0 W/m 7,5 C 8,5 C 9,7 km/h (2 Bft) 100,00 %
29.10.2016 23:54 8,7 C 92 % 1029,8 hPa 0,0 l/m 7,0 km/h (2 Bft) W-SW 252 0 min 0,000 mm 0,0 UV-I 0 W/m 7,5 C 8,2 C 12,9 km/h (3 Bft) 100,00 %
29.10.2016 23:56 8,7 C 92 % 1029,8 hPa 0,0 l/m 7,3 km/h (2 Bft) W-SW 254 0 min 0,000 mm 0,0 UV-I 0 W/m 7,5 C 8,0 C 12,9 km/h (3 Bft) 100,00 %
29.10.2016 23:58 8,7 C 92 % 1029,8 hPa 0,0 l/m 8,7 km/h (2 Bft) W 259 0 min 0,000 mm 0,0 UV-I 0 W/m 7,5 C 7,0 C 12,9 km/h (3 Bft) 100,00 %
_ Min-Zeit 20:36 00:08 17:06 - 03:40 - - - - - - 21:16 21:20 03:40 12:32
Minimum _ 8,4 C 88 % 1028,8 hPa - 0,5 km/h (0 Bft) - - - - - - 7,3 C 2,8 C 1,6 km/h (1 Bft) 91,30 %
_ Max-Zeit 16:16 10:16 00:08 03:02 07:10 - - 17:34 13:00 12:44 12:44 14:39 11:44 15:00 00:01
Maximum _ 10,8 C 98 % 1032,8 hPa 0,2 l/m 16,8 km/h
W-SW (3 Bft)
- - 2 min 0,051 mm 0,9 UV-I 154 W/m 9,7 C 9,9 C 27,4 km/h
W-SW (4 Bft)
100,00 %
Durchschnitt _ 9,4 C 94 % 1030,7 hPa #2,0 l/m 9,5 km/h (2 Bft) W-SW - #6 min. #0,330 mm 0,5 UV-I 54 W/m 8,4 C 7,3 C 14,7 km/h (3 Bft) 98,65 %